<?xml version="1.0" encoding="UTF-8" standalone="no" ?>
<gpx xmlns="http://www.topografix.com/GPX/1/1" xmlns:xsi="http://www.w3.org/2001/XMLSchema-instance" xsi:schemaLocation="http://www.topografix.com/GPX/1/1 http://www.topografix.com/GPX/1/1/gpx.xsd" version="1.1" creator="VisuGPX - https://www.visugpx.com">
  <metadata>
    <name>promenade halage</name>
    <desc><![CDATA[promenade halage]]></desc>
  </metadata>
  <wpt lat="38.85555" lon="-94.79902">
    <ele>3.01</ele>
    <name><![CDATA[GARMIN]]></name>
  </wpt>
  <wpt lat="50.98288" lon="-1.4639">
    <ele>3.01</ele>
    <name><![CDATA[GRMEUR]]></name>
  </wpt>
  <wpt lat="25.06178" lon="121.64027">
    <ele>3.01</ele>
    <name><![CDATA[GRMTWN]]></name>
  </wpt>
  <wpt lat="47.87632" lon="-3.01188">
    <ele>40.02</ele>
    <name><![CDATA[H]]></name>
  </wpt>
  <trk>
    <name><![CDATA[ACTIVE LOG: 08 MAI 2012 13:10]]></name>
    <trkseg>
      <trkpt lat="47.88239" lon="-3.11131">
        <ele>46.28</ele>
        <time>2012-05-08T12:10:04Z</time>
      </trkpt>
      <trkpt lat="47.8824" lon="-3.11125">
        <ele>28.5</ele>
        <time>2012-05-08T12:12:42Z</time>
      </trkpt>
      <trkpt lat="47.88241" lon="-3.11127">
        <ele>28.02</ele>
        <time>2012-05-08T12:13:38Z</time>
      </trkpt>
      <trkpt lat="47.88241" lon="-3.11127">
        <ele>28.02</ele>
        <time>2012-05-08T12:13:40Z</time>
      </trkpt>
      <trkpt lat="47.88243" lon="-3.11129">
        <ele>27.53</ele>
        <time>2012-05-08T12:13:44Z</time>
      </trkpt>
      <trkpt lat="47.88248" lon="-3.11134">
        <ele>27.53</ele>
        <time>2012-05-08T12:13:48Z</time>
      </trkpt>
      <trkpt lat="47.88248" lon="-3.11159">
        <ele>23.69</ele>
        <time>2012-05-08T12:13:56Z</time>
      </trkpt>
      <trkpt lat="47.88235" lon="-3.11223">
        <ele>22.73</ele>
        <time>2012-05-08T12:14:10Z</time>
      </trkpt>
      <trkpt lat="47.88228" lon="-3.11266">
        <ele>21.77</ele>
        <time>2012-05-08T12:14:17Z</time>
      </trkpt>
      <trkpt lat="47.88231" lon="-3.11388">
        <ele>21.29</ele>
        <time>2012-05-08T12:14:34Z</time>
      </trkpt>
      <trkpt lat="47.88238" lon="-3.1146">
        <ele>23.69</ele>
        <time>2012-05-08T12:14:44Z</time>
      </trkpt>
      <trkpt lat="47.8825" lon="-3.1154">
        <ele>23.21</ele>
        <time>2012-05-08T12:14:55Z</time>
      </trkpt>
      <trkpt lat="47.88251" lon="-3.11557">
        <ele>24.17</ele>
        <time>2012-05-08T12:14:57Z</time>
      </trkpt>
      <trkpt lat="47.8826" lon="-3.11667">
        <ele>25.61</ele>
        <time>2012-05-08T12:15:11Z</time>
      </trkpt>
      <trkpt lat="47.8826" lon="-3.11683">
        <ele>26.57</ele>
        <time>2012-05-08T12:15:13Z</time>
      </trkpt>
      <trkpt lat="47.88259" lon="-3.11715">
        <ele>28.98</ele>
        <time>2012-05-08T12:15:17Z</time>
      </trkpt>
      <trkpt lat="47.88255" lon="-3.11756">
        <ele>30.9</ele>
        <time>2012-05-08T12:15:22Z</time>
      </trkpt>
      <trkpt lat="47.8824" lon="-3.11912">
        <ele>38.11</ele>
        <time>2012-05-08T12:15:42Z</time>
      </trkpt>
      <trkpt lat="47.88237" lon="-3.11936">
        <ele>37.63</ele>
        <time>2012-05-08T12:15:45Z</time>
      </trkpt>
      <trkpt lat="47.88229" lon="-3.12017">
        <ele>42.44</ele>
        <time>2012-05-08T12:15:55Z</time>
      </trkpt>
      <trkpt lat="47.88225" lon="-3.1208">
        <ele>41.47</ele>
        <time>2012-05-08T12:16:03Z</time>
      </trkpt>
      <trkpt lat="47.88225" lon="-3.12104">
        <ele>39.55</ele>
        <time>2012-05-08T12:16:06Z</time>
      </trkpt>
      <trkpt lat="47.8823" lon="-3.12135">
        <ele>37.63</ele>
        <time>2012-05-08T12:16:10Z</time>
      </trkpt>
      <trkpt lat="47.88241" lon="-3.1217">
        <ele>33.3</ele>
        <time>2012-05-08T12:16:15Z</time>
      </trkpt>
      <trkpt lat="47.88247" lon="-3.12192">
        <ele>31.38</ele>
        <time>2012-05-08T12:16:18Z</time>
      </trkpt>
      <trkpt lat="47.88259" lon="-3.12261">
        <ele>29.46</ele>
        <time>2012-05-08T12:16:27Z</time>
      </trkpt>
      <trkpt lat="47.8826" lon="-3.12293">
        <ele>27.05</ele>
        <time>2012-05-08T12:16:31Z</time>
      </trkpt>
      <trkpt lat="47.88255" lon="-3.12364">
        <ele>29.46</ele>
        <time>2012-05-08T12:16:40Z</time>
      </trkpt>
      <trkpt lat="47.88252" lon="-3.12491">
        <ele>27.05</ele>
        <time>2012-05-08T12:16:56Z</time>
      </trkpt>
      <trkpt lat="47.88265" lon="-3.12581">
        <ele>26.57</ele>
        <time>2012-05-08T12:17:07Z</time>
      </trkpt>
      <trkpt lat="47.88274" lon="-3.12637">
        <ele>25.61</ele>
        <time>2012-05-08T12:17:14Z</time>
      </trkpt>
      <trkpt lat="47.88279" lon="-3.12677">
        <ele>25.13</ele>
        <time>2012-05-08T12:17:19Z</time>
      </trkpt>
      <trkpt lat="47.88301" lon="-3.1274">
        <ele>27.05</ele>
        <time>2012-05-08T12:17:28Z</time>
      </trkpt>
      <trkpt lat="47.88311" lon="-3.12769">
        <ele>28.02</ele>
        <time>2012-05-08T12:17:32Z</time>
      </trkpt>
      <trkpt lat="47.88337" lon="-3.12828">
        <ele>28.02</ele>
        <time>2012-05-08T12:17:42Z</time>
      </trkpt>
      <trkpt lat="47.88368" lon="-3.12862">
        <ele>28.02</ele>
        <time>2012-05-08T12:17:50Z</time>
      </trkpt>
      <trkpt lat="47.88386" lon="-3.12873">
        <ele>28.98</ele>
        <time>2012-05-08T12:17:53Z</time>
      </trkpt>
      <trkpt lat="47.884" lon="-3.12886">
        <ele>30.9</ele>
        <time>2012-05-08T12:17:57Z</time>
      </trkpt>
      <trkpt lat="47.88422" lon="-3.12908">
        <ele>36.67</ele>
        <time>2012-05-08T12:18:01Z</time>
      </trkpt>
      <trkpt lat="47.88499" lon="-3.13006">
        <ele>33.3</ele>
        <time>2012-05-08T12:18:18Z</time>
      </trkpt>
      <trkpt lat="47.88549" lon="-3.1311">
        <ele>28.98</ele>
        <time>2012-05-08T12:18:33Z</time>
      </trkpt>
      <trkpt lat="47.88604" lon="-3.13229">
        <ele>26.09</ele>
        <time>2012-05-08T12:18:50Z</time>
      </trkpt>
      <trkpt lat="47.88648" lon="-3.13332">
        <ele>25.61</ele>
        <time>2012-05-08T12:19:04Z</time>
      </trkpt>
      <trkpt lat="47.88693" lon="-3.13431">
        <ele>24.65</ele>
        <time>2012-05-08T12:19:18Z</time>
      </trkpt>
      <trkpt lat="47.88755" lon="-3.13519">
        <ele>24.17</ele>
        <time>2012-05-08T12:19:33Z</time>
      </trkpt>
      <trkpt lat="47.88795" lon="-3.13573">
        <ele>25.13</ele>
        <time>2012-05-08T12:19:43Z</time>
      </trkpt>
      <trkpt lat="47.8882" lon="-3.13606">
        <ele>26.09</ele>
        <time>2012-05-08T12:19:52Z</time>
      </trkpt>
      <trkpt lat="47.88822" lon="-3.13609">
        <ele>26.09</ele>
        <time>2012-05-08T12:19:53Z</time>
      </trkpt>
      <trkpt lat="47.88833" lon="-3.13621">
        <ele>26.57</ele>
        <time>2012-05-08T12:19:56Z</time>
      </trkpt>
      <trkpt lat="47.88872" lon="-3.13685">
        <ele>25.13</ele>
        <time>2012-05-08T12:20:06Z</time>
      </trkpt>
      <trkpt lat="47.8889" lon="-3.13726">
        <ele>25.13</ele>
        <time>2012-05-08T12:20:12Z</time>
      </trkpt>
      <trkpt lat="47.8891" lon="-3.1384">
        <ele>24.65</ele>
        <time>2012-05-08T12:20:27Z</time>
      </trkpt>
      <trkpt lat="47.88922" lon="-3.13957">
        <ele>26.57</ele>
        <time>2012-05-08T12:20:41Z</time>
      </trkpt>
      <trkpt lat="47.88922" lon="-3.14064">
        <ele>28.5</ele>
        <time>2012-05-08T12:20:53Z</time>
      </trkpt>
      <trkpt lat="47.88922" lon="-3.14073">
        <ele>28.98</ele>
        <time>2012-05-08T12:20:54Z</time>
      </trkpt>
      <trkpt lat="47.88918" lon="-3.14114">
        <ele>29.94</ele>
        <time>2012-05-08T12:20:59Z</time>
      </trkpt>
      <trkpt lat="47.88918" lon="-3.14131">
        <ele>30.42</ele>
        <time>2012-05-08T12:21:01Z</time>
      </trkpt>
      <trkpt lat="47.88921" lon="-3.14156">
        <ele>30.9</ele>
        <time>2012-05-08T12:21:04Z</time>
      </trkpt>
      <trkpt lat="47.88929" lon="-3.14198">
        <ele>31.86</ele>
        <time>2012-05-08T12:21:09Z</time>
      </trkpt>
      <trkpt lat="47.88935" lon="-3.14248">
        <ele>33.78</ele>
        <time>2012-05-08T12:21:15Z</time>
      </trkpt>
      <trkpt lat="47.88942" lon="-3.14282">
        <ele>35.71</ele>
        <time>2012-05-08T12:21:19Z</time>
      </trkpt>
      <trkpt lat="47.88953" lon="-3.14365">
        <ele>41.95</ele>
        <time>2012-05-08T12:21:29Z</time>
      </trkpt>
      <trkpt lat="47.88962" lon="-3.14423">
        <ele>42.92</ele>
        <time>2012-05-08T12:21:36Z</time>
      </trkpt>
      <trkpt lat="47.88974" lon="-3.14489">
        <ele>45.8</ele>
        <time>2012-05-08T12:21:44Z</time>
      </trkpt>
      <trkpt lat="47.88977" lon="-3.14504">
        <ele>46.76</ele>
        <time>2012-05-08T12:21:46Z</time>
      </trkpt>
      <trkpt lat="47.88986" lon="-3.14555">
        <ele>49.16</ele>
        <time>2012-05-08T12:21:52Z</time>
      </trkpt>
      <trkpt lat="47.8899" lon="-3.14587">
        <ele>44.84</ele>
        <time>2012-05-08T12:21:56Z</time>
      </trkpt>
      <trkpt lat="47.88995" lon="-3.1466">
        <ele>33.78</ele>
        <time>2012-05-08T12:22:05Z</time>
      </trkpt>
      <trkpt lat="47.88995" lon="-3.14675">
        <ele>33.3</ele>
        <time>2012-05-08T12:22:07Z</time>
      </trkpt>
      <trkpt lat="47.88994" lon="-3.14712">
        <ele>28.5</ele>
        <time>2012-05-08T12:22:12Z</time>
      </trkpt>
      <trkpt lat="47.88989" lon="-3.14782">
        <ele>25.61</ele>
        <time>2012-05-08T12:22:21Z</time>
      </trkpt>
      <trkpt lat="47.88986" lon="-3.14874">
        <ele>29.94</ele>
        <time>2012-05-08T12:22:31Z</time>
      </trkpt>
      <trkpt lat="47.88984" lon="-3.14917">
        <ele>32.34</ele>
        <time>2012-05-08T12:22:37Z</time>
      </trkpt>
      <trkpt lat="47.88978" lon="-3.14966">
        <ele>32.82</ele>
        <time>2012-05-08T12:22:44Z</time>
      </trkpt>
      <trkpt lat="47.88971" lon="-3.14998">
        <ele>33.3</ele>
        <time>2012-05-08T12:22:50Z</time>
      </trkpt>
      <trkpt lat="47.88966" lon="-3.15047">
        <ele>32.34</ele>
        <time>2012-05-08T12:22:56Z</time>
      </trkpt>
      <trkpt lat="47.88959" lon="-3.15121">
        <ele>37.63</ele>
        <time>2012-05-08T12:23:04Z</time>
      </trkpt>
      <trkpt lat="47.88953" lon="-3.15196">
        <ele>36.67</ele>
        <time>2012-05-08T12:23:12Z</time>
      </trkpt>
      <trkpt lat="47.88942" lon="-3.15278">
        <ele>39.07</ele>
        <time>2012-05-08T12:23:21Z</time>
      </trkpt>
      <trkpt lat="47.88935" lon="-3.15336">
        <ele>40.51</ele>
        <time>2012-05-08T12:23:28Z</time>
      </trkpt>
      <trkpt lat="47.88928" lon="-3.15407">
        <ele>43.4</ele>
        <time>2012-05-08T12:23:36Z</time>
      </trkpt>
      <trkpt lat="47.8893" lon="-3.15447">
        <ele>40.51</ele>
        <time>2012-05-08T12:23:41Z</time>
      </trkpt>
      <trkpt lat="47.88941" lon="-3.15555">
        <ele>30.9</ele>
        <time>2012-05-08T12:23:54Z</time>
      </trkpt>
      <trkpt lat="47.88943" lon="-3.15597">
        <ele>30.42</ele>
        <time>2012-05-08T12:23:59Z</time>
      </trkpt>
      <trkpt lat="47.88942" lon="-3.1563">
        <ele>29.94</ele>
        <time>2012-05-08T12:24:03Z</time>
      </trkpt>
      <trkpt lat="47.88937" lon="-3.15699">
        <ele>31.38</ele>
        <time>2012-05-08T12:24:11Z</time>
      </trkpt>
      <trkpt lat="47.88935" lon="-3.15732">
        <ele>32.34</ele>
        <time>2012-05-08T12:24:15Z</time>
      </trkpt>
      <trkpt lat="47.88927" lon="-3.15786">
        <ele>33.78</ele>
        <time>2012-05-08T12:24:22Z</time>
      </trkpt>
      <trkpt lat="47.88911" lon="-3.15874">
        <ele>35.71</ele>
        <time>2012-05-08T12:24:32Z</time>
      </trkpt>
      <trkpt lat="47.88892" lon="-3.15949">
        <ele>36.19</ele>
        <time>2012-05-08T12:24:42Z</time>
      </trkpt>
      <trkpt lat="47.88879" lon="-3.16001">
        <ele>38.11</ele>
        <time>2012-05-08T12:24:50Z</time>
      </trkpt>
      <trkpt lat="47.88875" lon="-3.16033">
        <ele>38.59</ele>
        <time>2012-05-08T12:24:54Z</time>
      </trkpt>
      <trkpt lat="47.88871" lon="-3.16065">
        <ele>39.07</ele>
        <time>2012-05-08T12:24:58Z</time>
      </trkpt>
      <trkpt lat="47.88865" lon="-3.16096">
        <ele>40.03</ele>
        <time>2012-05-08T12:25:02Z</time>
      </trkpt>
      <trkpt lat="47.88853" lon="-3.16156">
        <ele>42.92</ele>
        <time>2012-05-08T12:25:10Z</time>
      </trkpt>
      <trkpt lat="47.88848" lon="-3.16182">
        <ele>44.36</ele>
        <time>2012-05-08T12:25:13Z</time>
      </trkpt>
      <trkpt lat="47.88844" lon="-3.1621">
        <ele>46.76</ele>
        <time>2012-05-08T12:25:17Z</time>
      </trkpt>
      <trkpt lat="47.88831" lon="-3.1629">
        <ele>50.13</ele>
        <time>2012-05-08T12:25:26Z</time>
      </trkpt>
      <trkpt lat="47.88824" lon="-3.16366">
        <ele>51.09</ele>
        <time>2012-05-08T12:25:33Z</time>
      </trkpt>
      <trkpt lat="47.88813" lon="-3.16412">
        <ele>53.97</ele>
        <time>2012-05-08T12:25:38Z</time>
      </trkpt>
      <trkpt lat="47.88808" lon="-3.16437">
        <ele>54.93</ele>
        <time>2012-05-08T12:25:41Z</time>
      </trkpt>
      <trkpt lat="47.88805" lon="-3.16463">
        <ele>55.41</ele>
        <time>2012-05-08T12:25:44Z</time>
      </trkpt>
      <trkpt lat="47.88791" lon="-3.16559">
        <ele>50.61</ele>
        <time>2012-05-08T12:25:54Z</time>
      </trkpt>
      <trkpt lat="47.88779" lon="-3.16639">
        <ele>44.84</ele>
        <time>2012-05-08T12:26:03Z</time>
      </trkpt>
      <trkpt lat="47.88767" lon="-3.16709">
        <ele>39.55</ele>
        <time>2012-05-08T12:26:12Z</time>
      </trkpt>
      <trkpt lat="47.88767" lon="-3.16716">
        <ele>39.07</ele>
        <time>2012-05-08T12:26:13Z</time>
      </trkpt>
      <trkpt lat="47.88762" lon="-3.16744">
        <ele>37.15</ele>
        <time>2012-05-08T12:26:17Z</time>
      </trkpt>
      <trkpt lat="47.88754" lon="-3.16785">
        <ele>36.67</ele>
        <time>2012-05-08T12:26:22Z</time>
      </trkpt>
      <trkpt lat="47.88738" lon="-3.16874">
        <ele>33.78</ele>
        <time>2012-05-08T12:26:32Z</time>
      </trkpt>
      <trkpt lat="47.88734" lon="-3.16898">
        <ele>33.78</ele>
        <time>2012-05-08T12:26:35Z</time>
      </trkpt>
      <trkpt lat="47.88719" lon="-3.16973">
        <ele>37.15</ele>
        <time>2012-05-08T12:26:43Z</time>
      </trkpt>
      <trkpt lat="47.88716" lon="-3.1699">
        <ele>37.63</ele>
        <time>2012-05-08T12:26:45Z</time>
      </trkpt>
      <trkpt lat="47.887" lon="-3.17072">
        <ele>50.13</ele>
        <time>2012-05-08T12:26:54Z</time>
      </trkpt>
      <trkpt lat="47.88698" lon="-3.1708">
        <ele>50.61</ele>
        <time>2012-05-08T12:26:55Z</time>
      </trkpt>
      <trkpt lat="47.88682" lon="-3.17155">
        <ele>51.09</ele>
        <time>2012-05-08T12:27:04Z</time>
      </trkpt>
      <trkpt lat="47.88671" lon="-3.17206">
        <ele>58.3</ele>
        <time>2012-05-08T12:27:10Z</time>
      </trkpt>
      <trkpt lat="47.88666" lon="-3.17222">
        <ele>59.26</ele>
        <time>2012-05-08T12:27:12Z</time>
      </trkpt>
      <trkpt lat="47.88643" lon="-3.17311">
        <ele>58.3</ele>
        <time>2012-05-08T12:27:24Z</time>
      </trkpt>
      <trkpt lat="47.88638" lon="-3.17335">
        <ele>57.34</ele>
        <time>2012-05-08T12:27:27Z</time>
      </trkpt>
      <trkpt lat="47.88631" lon="-3.17364">
        <ele>57.34</ele>
        <time>2012-05-08T12:27:31Z</time>
      </trkpt>
      <trkpt lat="47.88625" lon="-3.17405">
        <ele>56.37</ele>
        <time>2012-05-08T12:27:36Z</time>
      </trkpt>
      <trkpt lat="47.88622" lon="-3.17452">
        <ele>52.53</ele>
        <time>2012-05-08T12:27:42Z</time>
      </trkpt>
      <trkpt lat="47.88617" lon="-3.17493">
        <ele>49.16</ele>
        <time>2012-05-08T12:27:48Z</time>
      </trkpt>
      <trkpt lat="47.88609" lon="-3.17561">
        <ele>47.72</ele>
        <time>2012-05-08T12:27:56Z</time>
      </trkpt>
      <trkpt lat="47.88608" lon="-3.17591">
        <ele>49.65</ele>
        <time>2012-05-08T12:27:59Z</time>
      </trkpt>
      <trkpt lat="47.88613" lon="-3.1768">
        <ele>45.8</ele>
        <time>2012-05-08T12:28:09Z</time>
      </trkpt>
      <trkpt lat="47.88612" lon="-3.17715">
        <ele>42.92</ele>
        <time>2012-05-08T12:28:13Z</time>
      </trkpt>
      <trkpt lat="47.88606" lon="-3.17772">
        <ele>42.44</ele>
        <time>2012-05-08T12:28:19Z</time>
      </trkpt>
      <trkpt lat="47.88611" lon="-3.1785">
        <ele>41.47</ele>
        <time>2012-05-08T12:28:28Z</time>
      </trkpt>
      <trkpt lat="47.88625" lon="-3.17964">
        <ele>38.11</ele>
        <time>2012-05-08T12:28:42Z</time>
      </trkpt>
      <trkpt lat="47.88627" lon="-3.17973">
        <ele>38.11</ele>
        <time>2012-05-08T12:28:43Z</time>
      </trkpt>
      <trkpt lat="47.88646" lon="-3.18065">
        <ele>35.23</ele>
        <time>2012-05-08T12:28:54Z</time>
      </trkpt>
      <trkpt lat="47.88652" lon="-3.18118">
        <ele>37.63</ele>
        <time>2012-05-08T12:29:00Z</time>
      </trkpt>
      <trkpt lat="47.88655" lon="-3.18187">
        <ele>38.59</ele>
        <time>2012-05-08T12:29:08Z</time>
      </trkpt>
      <trkpt lat="47.88656" lon="-3.18257">
        <ele>39.07</ele>
        <time>2012-05-08T12:29:16Z</time>
      </trkpt>
      <trkpt lat="47.88661" lon="-3.1836">
        <ele>38.59</ele>
        <time>2012-05-08T12:29:28Z</time>
      </trkpt>
      <trkpt lat="47.88665" lon="-3.18446">
        <ele>40.03</ele>
        <time>2012-05-08T12:29:38Z</time>
      </trkpt>
      <trkpt lat="47.88688" lon="-3.18555">
        <ele>36.67</ele>
        <time>2012-05-08T12:29:51Z</time>
      </trkpt>
      <trkpt lat="47.88718" lon="-3.18694">
        <ele>30.9</ele>
        <time>2012-05-08T12:30:08Z</time>
      </trkpt>
      <trkpt lat="47.88741" lon="-3.18813">
        <ele>28.02</ele>
        <time>2012-05-08T12:30:23Z</time>
      </trkpt>
      <trkpt lat="47.88742" lon="-3.18821">
        <ele>28.02</ele>
        <time>2012-05-08T12:30:24Z</time>
      </trkpt>
      <trkpt lat="47.88746" lon="-3.18844">
        <ele>28.02</ele>
        <time>2012-05-08T12:30:27Z</time>
      </trkpt>
      <trkpt lat="47.8875" lon="-3.18868">
        <ele>28.02</ele>
        <time>2012-05-08T12:30:30Z</time>
      </trkpt>
      <trkpt lat="47.88755" lon="-3.18917">
        <ele>28.5</ele>
        <time>2012-05-08T12:30:36Z</time>
      </trkpt>
      <trkpt lat="47.88755" lon="-3.18941">
        <ele>28.5</ele>
        <time>2012-05-08T12:30:39Z</time>
      </trkpt>
      <trkpt lat="47.88749" lon="-3.18991">
        <ele>28.02</ele>
        <time>2012-05-08T12:30:45Z</time>
      </trkpt>
      <trkpt lat="47.88737" lon="-3.19049">
        <ele>27.05</ele>
        <time>2012-05-08T12:30:52Z</time>
      </trkpt>
      <trkpt lat="47.88711" lon="-3.19157">
        <ele>30.42</ele>
        <time>2012-05-08T12:31:05Z</time>
      </trkpt>
      <trkpt lat="47.88684" lon="-3.19268">
        <ele>30.9</ele>
        <time>2012-05-08T12:31:19Z</time>
      </trkpt>
      <trkpt lat="47.88682" lon="-3.19276">
        <ele>30.9</ele>
        <time>2012-05-08T12:31:20Z</time>
      </trkpt>
      <trkpt lat="47.88677" lon="-3.19291">
        <ele>30.42</ele>
        <time>2012-05-08T12:31:22Z</time>
      </trkpt>
      <trkpt lat="47.88657" lon="-3.19358">
        <ele>29.46</ele>
        <time>2012-05-08T12:31:31Z</time>
      </trkpt>
      <trkpt lat="47.88615" lon="-3.19471">
        <ele>28.02</ele>
        <time>2012-05-08T12:31:47Z</time>
      </trkpt>
      <trkpt lat="47.88601" lon="-3.19502">
        <ele>28.02</ele>
        <time>2012-05-08T12:31:52Z</time>
      </trkpt>
      <trkpt lat="47.88586" lon="-3.19544">
        <ele>28.98</ele>
        <time>2012-05-08T12:31:58Z</time>
      </trkpt>
      <trkpt lat="47.88564" lon="-3.19621">
        <ele>28.5</ele>
        <time>2012-05-08T12:32:08Z</time>
      </trkpt>
      <trkpt lat="47.88548" lon="-3.19681">
        <ele>27.53</ele>
        <time>2012-05-08T12:32:16Z</time>
      </trkpt>
      <trkpt lat="47.88544" lon="-3.19696">
        <ele>28.02</ele>
        <time>2012-05-08T12:32:18Z</time>
      </trkpt>
      <trkpt lat="47.8853" lon="-3.19757">
        <ele>28.5</ele>
        <time>2012-05-08T12:32:28Z</time>
      </trkpt>
      <trkpt lat="47.88528" lon="-3.19769">
        <ele>28.5</ele>
        <time>2012-05-08T12:32:31Z</time>
      </trkpt>
      <trkpt lat="47.88517" lon="-3.19806">
        <ele>31.38</ele>
        <time>2012-05-08T12:32:38Z</time>
      </trkpt>
      <trkpt lat="47.88499" lon="-3.19861">
        <ele>33.3</ele>
        <time>2012-05-08T12:32:46Z</time>
      </trkpt>
      <trkpt lat="47.8846" lon="-3.20001">
        <ele>30.9</ele>
        <time>2012-05-08T12:33:03Z</time>
      </trkpt>
      <trkpt lat="47.88443" lon="-3.20055">
        <ele>29.94</ele>
        <time>2012-05-08T12:33:09Z</time>
      </trkpt>
      <trkpt lat="47.88396" lon="-3.20129">
        <ele>35.71</ele>
        <time>2012-05-08T12:33:20Z</time>
      </trkpt>
      <trkpt lat="47.88388" lon="-3.20142">
        <ele>36.19</ele>
        <time>2012-05-08T12:33:22Z</time>
      </trkpt>
      <trkpt lat="47.88343" lon="-3.20191">
        <ele>35.23</ele>
        <time>2012-05-08T12:33:32Z</time>
      </trkpt>
      <trkpt lat="47.883" lon="-3.20223">
        <ele>32.34</ele>
        <time>2012-05-08T12:33:41Z</time>
      </trkpt>
      <trkpt lat="47.88261" lon="-3.20251">
        <ele>31.86</ele>
        <time>2012-05-08T12:33:50Z</time>
      </trkpt>
      <trkpt lat="47.88203" lon="-3.20291">
        <ele>29.94</ele>
        <time>2012-05-08T12:34:01Z</time>
      </trkpt>
      <trkpt lat="47.88159" lon="-3.2032">
        <ele>28.5</ele>
        <time>2012-05-08T12:34:09Z</time>
      </trkpt>
      <trkpt lat="47.88107" lon="-3.20345">
        <ele>27.53</ele>
        <time>2012-05-08T12:34:18Z</time>
      </trkpt>
      <trkpt lat="47.88086" lon="-3.20344">
        <ele>27.53</ele>
        <time>2012-05-08T12:34:22Z</time>
      </trkpt>
      <trkpt lat="47.88076" lon="-3.2034">
        <ele>27.53</ele>
        <time>2012-05-08T12:34:24Z</time>
      </trkpt>
      <trkpt lat="47.88054" lon="-3.20327">
        <ele>27.53</ele>
        <time>2012-05-08T12:34:28Z</time>
      </trkpt>
      <trkpt lat="47.8803" lon="-3.20305">
        <ele>28.02</ele>
        <time>2012-05-08T12:34:33Z</time>
      </trkpt>
      <trkpt lat="47.88015" lon="-3.20295">
        <ele>27.53</ele>
        <time>2012-05-08T12:34:36Z</time>
      </trkpt>
      <trkpt lat="47.87997" lon="-3.20281">
        <ele>27.05</ele>
        <time>2012-05-08T12:34:40Z</time>
      </trkpt>
      <trkpt lat="47.87984" lon="-3.20261">
        <ele>26.09</ele>
        <time>2012-05-08T12:34:43Z</time>
      </trkpt>
      <trkpt lat="47.87928" lon="-3.20198">
        <ele>22.25</ele>
        <time>2012-05-08T12:34:53Z</time>
      </trkpt>
      <trkpt lat="47.87871" lon="-3.20135">
        <ele>20.32</ele>
        <time>2012-05-08T12:35:04Z</time>
      </trkpt>
      <trkpt lat="47.87832" lon="-3.20096">
        <ele>18.4</ele>
        <time>2012-05-08T12:35:12Z</time>
      </trkpt>
      <trkpt lat="47.8779" lon="-3.20054">
        <ele>17.92</ele>
        <time>2012-05-08T12:35:21Z</time>
      </trkpt>
      <trkpt lat="47.87735" lon="-3.19999">
        <ele>19.84</ele>
        <time>2012-05-08T12:35:32Z</time>
      </trkpt>
      <trkpt lat="47.8769" lon="-3.19951">
        <ele>18.88</ele>
        <time>2012-05-08T12:35:41Z</time>
      </trkpt>
      <trkpt lat="47.87661" lon="-3.19923">
        <ele>17.92</ele>
        <time>2012-05-08T12:35:47Z</time>
      </trkpt>
      <trkpt lat="47.87604" lon="-3.19882">
        <ele>15.04</ele>
        <time>2012-05-08T12:35:58Z</time>
      </trkpt>
      <trkpt lat="47.87549" lon="-3.19835">
        <ele>14.08</ele>
        <time>2012-05-08T12:36:08Z</time>
      </trkpt>
      <trkpt lat="47.87513" lon="-3.19798">
        <ele>11.19</ele>
        <time>2012-05-08T12:36:16Z</time>
      </trkpt>
      <trkpt lat="47.87462" lon="-3.19749">
        <ele>12.15</ele>
        <time>2012-05-08T12:36:26Z</time>
      </trkpt>
      <trkpt lat="47.87397" lon="-3.1969">
        <ele>14.08</ele>
        <time>2012-05-08T12:36:40Z</time>
      </trkpt>
      <trkpt lat="47.87392" lon="-3.19685">
        <ele>14.56</ele>
        <time>2012-05-08T12:36:41Z</time>
      </trkpt>
      <trkpt lat="47.87379" lon="-3.19675">
        <ele>15.04</ele>
        <time>2012-05-08T12:36:44Z</time>
      </trkpt>
      <trkpt lat="47.87354" lon="-3.19654">
        <ele>16</ele>
        <time>2012-05-08T12:36:50Z</time>
      </trkpt>
      <trkpt lat="47.87314" lon="-3.19625">
        <ele>16</ele>
        <time>2012-05-08T12:36:59Z</time>
      </trkpt>
      <trkpt lat="47.87271" lon="-3.19604">
        <ele>15.52</ele>
        <time>2012-05-08T12:37:08Z</time>
      </trkpt>
      <trkpt lat="47.87211" lon="-3.19588">
        <ele>16.96</ele>
        <time>2012-05-08T12:37:20Z</time>
      </trkpt>
      <trkpt lat="47.87143" lon="-3.19578">
        <ele>16.96</ele>
        <time>2012-05-08T12:37:33Z</time>
      </trkpt>
      <trkpt lat="47.87085" lon="-3.19576">
        <ele>16</ele>
        <time>2012-05-08T12:37:44Z</time>
      </trkpt>
      <trkpt lat="47.87073" lon="-3.19576">
        <ele>16</ele>
        <time>2012-05-08T12:37:46Z</time>
      </trkpt>
      <trkpt lat="47.87007" lon="-3.19582">
        <ele>17.44</ele>
        <time>2012-05-08T12:37:58Z</time>
      </trkpt>
      <trkpt lat="47.86942" lon="-3.19592">
        <ele>17.92</ele>
        <time>2012-05-08T12:38:10Z</time>
      </trkpt>
      <trkpt lat="47.86885" lon="-3.19613">
        <ele>19.36</ele>
        <time>2012-05-08T12:38:21Z</time>
      </trkpt>
      <trkpt lat="47.86803" lon="-3.1966">
        <ele>19.36</ele>
        <time>2012-05-08T12:38:37Z</time>
      </trkpt>
      <trkpt lat="47.86784" lon="-3.19673">
        <ele>19.36</ele>
        <time>2012-05-08T12:38:41Z</time>
      </trkpt>
      <trkpt lat="47.86762" lon="-3.1969">
        <ele>19.36</ele>
        <time>2012-05-08T12:38:46Z</time>
      </trkpt>
      <trkpt lat="47.86753" lon="-3.19698">
        <ele>19.84</ele>
        <time>2012-05-08T12:38:48Z</time>
      </trkpt>
      <trkpt lat="47.86686" lon="-3.19749">
        <ele>20.81</ele>
        <time>2012-05-08T12:39:02Z</time>
      </trkpt>
      <trkpt lat="47.86661" lon="-3.19768">
        <ele>21.29</ele>
        <time>2012-05-08T12:39:07Z</time>
      </trkpt>
      <trkpt lat="47.86609" lon="-3.19804">
        <ele>19.84</ele>
        <time>2012-05-08T12:39:18Z</time>
      </trkpt>
      <trkpt lat="47.86561" lon="-3.19846">
        <ele>19.84</ele>
        <time>2012-05-08T12:39:29Z</time>
      </trkpt>
      <trkpt lat="47.86551" lon="-3.19858">
        <ele>19.84</ele>
        <time>2012-05-08T12:39:32Z</time>
      </trkpt>
      <trkpt lat="47.86536" lon="-3.19876">
        <ele>20.32</ele>
        <time>2012-05-08T12:39:36Z</time>
      </trkpt>
      <trkpt lat="47.86508" lon="-3.19898">
        <ele>19.36</ele>
        <time>2012-05-08T12:39:42Z</time>
      </trkpt>
      <trkpt lat="47.86469" lon="-3.19936">
        <ele>20.81</ele>
        <time>2012-05-08T12:39:51Z</time>
      </trkpt>
      <trkpt lat="47.86452" lon="-3.19964">
        <ele>21.29</ele>
        <time>2012-05-08T12:39:56Z</time>
      </trkpt>
      <trkpt lat="47.86436" lon="-3.19993">
        <ele>21.77</ele>
        <time>2012-05-08T12:40:01Z</time>
      </trkpt>
      <trkpt lat="47.86425" lon="-3.20017">
        <ele>22.73</ele>
        <time>2012-05-08T12:40:05Z</time>
      </trkpt>
      <trkpt lat="47.86396" lon="-3.2008">
        <ele>24.17</ele>
        <time>2012-05-08T12:40:15Z</time>
      </trkpt>
      <trkpt lat="47.86393" lon="-3.20087">
        <ele>24.65</ele>
        <time>2012-05-08T12:40:16Z</time>
      </trkpt>
      <trkpt lat="47.86384" lon="-3.20099">
        <ele>25.61</ele>
        <time>2012-05-08T12:40:18Z</time>
      </trkpt>
      <trkpt lat="47.86362" lon="-3.20152">
        <ele>30.9</ele>
        <time>2012-05-08T12:40:26Z</time>
      </trkpt>
      <trkpt lat="47.86329" lon="-3.20257">
        <ele>36.67</ele>
        <time>2012-05-08T12:40:41Z</time>
      </trkpt>
      <trkpt lat="47.86309" lon="-3.20323">
        <ele>41.95</ele>
        <time>2012-05-08T12:40:50Z</time>
      </trkpt>
      <trkpt lat="47.86303" lon="-3.20344">
        <ele>43.4</ele>
        <time>2012-05-08T12:40:53Z</time>
      </trkpt>
      <trkpt lat="47.86292" lon="-3.20367">
        <ele>41.47</ele>
        <time>2012-05-08T12:40:57Z</time>
      </trkpt>
      <trkpt lat="47.86248" lon="-3.20469">
        <ele>36.19</ele>
        <time>2012-05-08T12:41:13Z</time>
      </trkpt>
      <trkpt lat="47.86199" lon="-3.20555">
        <ele>31.86</ele>
        <time>2012-05-08T12:41:28Z</time>
      </trkpt>
      <trkpt lat="47.86143" lon="-3.20646">
        <ele>28.5</ele>
        <time>2012-05-08T12:41:47Z</time>
      </trkpt>
      <trkpt lat="47.86121" lon="-3.20687">
        <ele>26.09</ele>
        <time>2012-05-08T12:41:58Z</time>
      </trkpt>
      <trkpt lat="47.86095" lon="-3.20715">
        <ele>26.57</ele>
        <time>2012-05-08T12:42:07Z</time>
      </trkpt>
      <trkpt lat="47.86058" lon="-3.20768">
        <ele>24.17</ele>
        <time>2012-05-08T12:42:18Z</time>
      </trkpt>
      <trkpt lat="47.85989" lon="-3.20856">
        <ele>22.73</ele>
        <time>2012-05-08T12:42:37Z</time>
      </trkpt>
      <trkpt lat="47.85914" lon="-3.20925">
        <ele>21.29</ele>
        <time>2012-05-08T12:42:54Z</time>
      </trkpt>
      <trkpt lat="47.85874" lon="-3.20964">
        <ele>21.29</ele>
        <time>2012-05-08T12:43:04Z</time>
      </trkpt>
      <trkpt lat="47.85845" lon="-3.20995">
        <ele>20.81</ele>
        <time>2012-05-08T12:43:12Z</time>
      </trkpt>
      <trkpt lat="47.85812" lon="-3.2103">
        <ele>20.81</ele>
        <time>2012-05-08T12:43:20Z</time>
      </trkpt>
      <trkpt lat="47.85767" lon="-3.21081">
        <ele>27.05</ele>
        <time>2012-05-08T12:43:31Z</time>
      </trkpt>
      <trkpt lat="47.8574" lon="-3.21107">
        <ele>28.5</ele>
        <time>2012-05-08T12:43:38Z</time>
      </trkpt>
      <trkpt lat="47.85694" lon="-3.21147">
        <ele>28.98</ele>
        <time>2012-05-08T12:43:48Z</time>
      </trkpt>
      <trkpt lat="47.85668" lon="-3.21178">
        <ele>29.46</ele>
        <time>2012-05-08T12:43:55Z</time>
      </trkpt>
      <trkpt lat="47.85633" lon="-3.21212">
        <ele>28.5</ele>
        <time>2012-05-08T12:44:03Z</time>
      </trkpt>
      <trkpt lat="47.85597" lon="-3.2124">
        <ele>26.57</ele>
        <time>2012-05-08T12:44:12Z</time>
      </trkpt>
      <trkpt lat="47.85581" lon="-3.21246">
        <ele>25.13</ele>
        <time>2012-05-08T12:44:14Z</time>
      </trkpt>
      <trkpt lat="47.85561" lon="-3.2125">
        <ele>24.65</ele>
        <time>2012-05-08T12:44:17Z</time>
      </trkpt>
      <trkpt lat="47.85537" lon="-3.21229">
        <ele>26.09</ele>
        <time>2012-05-08T12:44:23Z</time>
      </trkpt>
      <trkpt lat="47.85528" lon="-3.2122">
        <ele>26.09</ele>
        <time>2012-05-08T12:44:25Z</time>
      </trkpt>
      <trkpt lat="47.85484" lon="-3.21179">
        <ele>24.65</ele>
        <time>2012-05-08T12:44:34Z</time>
      </trkpt>
      <trkpt lat="47.85448" lon="-3.21151">
        <ele>22.73</ele>
        <time>2012-05-08T12:44:43Z</time>
      </trkpt>
      <trkpt lat="47.85426" lon="-3.21139">
        <ele>19.36</ele>
        <time>2012-05-08T12:44:47Z</time>
      </trkpt>
      <trkpt lat="47.85414" lon="-3.21135">
        <ele>17.44</ele>
        <time>2012-05-08T12:44:49Z</time>
      </trkpt>
      <trkpt lat="47.85372" lon="-3.21143">
        <ele>12.63</ele>
        <time>2012-05-08T12:44:56Z</time>
      </trkpt>
      <trkpt lat="47.85352" lon="-3.21168">
        <ele>12.63</ele>
        <time>2012-05-08T12:45:00Z</time>
      </trkpt>
      <trkpt lat="47.85345" lon="-3.21185">
        <ele>13.6</ele>
        <time>2012-05-08T12:45:02Z</time>
      </trkpt>
      <trkpt lat="47.85329" lon="-3.21221">
        <ele>15.04</ele>
        <time>2012-05-08T12:45:07Z</time>
      </trkpt>
      <trkpt lat="47.85309" lon="-3.21255">
        <ele>18.4</ele>
        <time>2012-05-08T12:45:12Z</time>
      </trkpt>
      <trkpt lat="47.85295" lon="-3.21286">
        <ele>18.88</ele>
        <time>2012-05-08T12:45:16Z</time>
      </trkpt>
      <trkpt lat="47.85288" lon="-3.21322">
        <ele>19.36</ele>
        <time>2012-05-08T12:45:20Z</time>
      </trkpt>
      <trkpt lat="47.85291" lon="-3.21338">
        <ele>19.84</ele>
        <time>2012-05-08T12:45:22Z</time>
      </trkpt>
      <trkpt lat="47.85307" lon="-3.21394">
        <ele>22.25</ele>
        <time>2012-05-08T12:45:30Z</time>
      </trkpt>
      <trkpt lat="47.85315" lon="-3.21417">
        <ele>23.69</ele>
        <time>2012-05-08T12:45:33Z</time>
      </trkpt>
      <trkpt lat="47.85325" lon="-3.21463">
        <ele>27.53</ele>
        <time>2012-05-08T12:45:39Z</time>
      </trkpt>
      <trkpt lat="47.85321" lon="-3.21503">
        <ele>31.38</ele>
        <time>2012-05-08T12:45:44Z</time>
      </trkpt>
      <trkpt lat="47.85293" lon="-3.21542">
        <ele>34.26</ele>
        <time>2012-05-08T12:45:51Z</time>
      </trkpt>
      <trkpt lat="47.85248" lon="-3.21568">
        <ele>38.59</ele>
        <time>2012-05-08T12:45:59Z</time>
      </trkpt>
      <trkpt lat="47.85218" lon="-3.21581">
        <ele>40.51</ele>
        <time>2012-05-08T12:46:04Z</time>
      </trkpt>
      <trkpt lat="47.85168" lon="-3.2158">
        <ele>43.88</ele>
        <time>2012-05-08T12:46:13Z</time>
      </trkpt>
      <trkpt lat="47.85137" lon="-3.21575">
        <ele>43.4</ele>
        <time>2012-05-08T12:46:20Z</time>
      </trkpt>
      <trkpt lat="47.8508" lon="-3.21567">
        <ele>43.4</ele>
        <time>2012-05-08T12:46:30Z</time>
      </trkpt>
      <trkpt lat="47.85011" lon="-3.21567">
        <ele>33.78</ele>
        <time>2012-05-08T12:46:42Z</time>
      </trkpt>
      <trkpt lat="47.84961" lon="-3.2157">
        <ele>25.61</ele>
        <time>2012-05-08T12:46:51Z</time>
      </trkpt>
      <trkpt lat="47.84947" lon="-3.21569">
        <ele>24.65</ele>
        <time>2012-05-08T12:46:54Z</time>
      </trkpt>
      <trkpt lat="47.84866" lon="-3.21575">
        <ele>21.77</ele>
        <time>2012-05-08T12:47:08Z</time>
      </trkpt>
      <trkpt lat="47.84784" lon="-3.21573">
        <ele>19.84</ele>
        <time>2012-05-08T12:47:22Z</time>
      </trkpt>
      <trkpt lat="47.84756" lon="-3.2157">
        <ele>18.88</ele>
        <time>2012-05-08T12:47:28Z</time>
      </trkpt>
      <trkpt lat="47.84734" lon="-3.21559">
        <ele>19.36</ele>
        <time>2012-05-08T12:47:33Z</time>
      </trkpt>
      <trkpt lat="47.84723" lon="-3.21548">
        <ele>20.81</ele>
        <time>2012-05-08T12:47:36Z</time>
      </trkpt>
      <trkpt lat="47.84675" lon="-3.2148">
        <ele>18.4</ele>
        <time>2012-05-08T12:47:49Z</time>
      </trkpt>
      <trkpt lat="47.84646" lon="-3.2144">
        <ele>17.44</ele>
        <time>2012-05-08T12:47:56Z</time>
      </trkpt>
      <trkpt lat="47.84634" lon="-3.21412">
        <ele>16.48</ele>
        <time>2012-05-08T12:48:00Z</time>
      </trkpt>
      <trkpt lat="47.84591" lon="-3.21338">
        <ele>14.56</ele>
        <time>2012-05-08T12:48:11Z</time>
      </trkpt>
      <trkpt lat="47.84559" lon="-3.21278">
        <ele>12.63</ele>
        <time>2012-05-08T12:48:20Z</time>
      </trkpt>
      <trkpt lat="47.84547" lon="-3.21257">
        <ele>12.63</ele>
        <time>2012-05-08T12:48:23Z</time>
      </trkpt>
      <trkpt lat="47.84509" lon="-3.2119">
        <ele>9.75</ele>
        <time>2012-05-08T12:48:33Z</time>
      </trkpt>
      <trkpt lat="47.84499" lon="-3.21169">
        <ele>8.79</ele>
        <time>2012-05-08T12:48:36Z</time>
      </trkpt>
      <trkpt lat="47.8447" lon="-3.21097">
        <ele>4.46</ele>
        <time>2012-05-08T12:48:46Z</time>
      </trkpt>
      <trkpt lat="47.84462" lon="-3.21076">
        <ele>2.54</ele>
        <time>2012-05-08T12:48:49Z</time>
      </trkpt>
      <trkpt lat="47.84432" lon="-3.21027">
        <ele>-0.34</ele>
        <time>2012-05-08T12:48:57Z</time>
      </trkpt>
      <trkpt lat="47.84399" lon="-3.20973">
        <ele>-1.3</ele>
        <time>2012-05-08T12:49:06Z</time>
      </trkpt>
      <trkpt lat="47.84336" lon="-3.20914">
        <ele>3.98</ele>
        <time>2012-05-08T12:49:20Z</time>
      </trkpt>
      <trkpt lat="47.84328" lon="-3.20906">
        <ele>3.02</ele>
        <time>2012-05-08T12:49:22Z</time>
      </trkpt>
      <trkpt lat="47.84315" lon="-3.20895">
        <ele>2.06</ele>
        <time>2012-05-08T12:49:25Z</time>
      </trkpt>
      <trkpt lat="47.84297" lon="-3.20876">
        <ele>0.14</ele>
        <time>2012-05-08T12:49:30Z</time>
      </trkpt>
      <trkpt lat="47.84242" lon="-3.20825">
        <ele>4.46</ele>
        <time>2012-05-08T12:49:40Z</time>
      </trkpt>
      <trkpt lat="47.84206" lon="-3.20772">
        <ele>8.31</ele>
        <time>2012-05-08T12:49:49Z</time>
      </trkpt>
      <trkpt lat="47.84193" lon="-3.2075">
        <ele>7.35</ele>
        <time>2012-05-08T12:49:53Z</time>
      </trkpt>
      <trkpt lat="47.84145" lon="-3.20693">
        <ele>11.67</ele>
        <time>2012-05-08T12:50:04Z</time>
      </trkpt>
      <trkpt lat="47.84141" lon="-3.20688">
        <ele>12.15</ele>
        <time>2012-05-08T12:50:05Z</time>
      </trkpt>
      <trkpt lat="47.84107" lon="-3.20617">
        <ele>14.08</ele>
        <time>2012-05-08T12:50:16Z</time>
      </trkpt>
      <trkpt lat="47.84095" lon="-3.2059">
        <ele>14.08</ele>
        <time>2012-05-08T12:50:20Z</time>
      </trkpt>
      <trkpt lat="47.84064" lon="-3.20549">
        <ele>13.6</ele>
        <time>2012-05-08T12:50:29Z</time>
      </trkpt>
      <trkpt lat="47.84048" lon="-3.20536">
        <ele>13.6</ele>
        <time>2012-05-08T12:50:33Z</time>
      </trkpt>
      <trkpt lat="47.84026" lon="-3.20525">
        <ele>12.63</ele>
        <time>2012-05-08T12:50:39Z</time>
      </trkpt>
      <trkpt lat="47.83998" lon="-3.20521">
        <ele>14.08</ele>
        <time>2012-05-08T12:50:45Z</time>
      </trkpt>
      <trkpt lat="47.83942" lon="-3.20532">
        <ele>15.52</ele>
        <time>2012-05-08T12:50:56Z</time>
      </trkpt>
      <trkpt lat="47.83885" lon="-3.20532">
        <ele>15.52</ele>
        <time>2012-05-08T12:51:07Z</time>
      </trkpt>
      <trkpt lat="47.83874" lon="-3.20533">
        <ele>15.52</ele>
        <time>2012-05-08T12:51:09Z</time>
      </trkpt>
      <trkpt lat="47.83864" lon="-3.20533">
        <ele>16</ele>
        <time>2012-05-08T12:51:11Z</time>
      </trkpt>
      <trkpt lat="47.83827" lon="-3.20528">
        <ele>17.92</ele>
        <time>2012-05-08T12:51:18Z</time>
      </trkpt>
      <trkpt lat="47.83813" lon="-3.20527">
        <ele>18.88</ele>
        <time>2012-05-08T12:51:21Z</time>
      </trkpt>
      <trkpt lat="47.8377" lon="-3.20515">
        <ele>19.84</ele>
        <time>2012-05-08T12:51:29Z</time>
      </trkpt>
      <trkpt lat="47.83755" lon="-3.2051">
        <ele>20.32</ele>
        <time>2012-05-08T12:51:32Z</time>
      </trkpt>
      <trkpt lat="47.83721" lon="-3.205">
        <ele>20.32</ele>
        <time>2012-05-08T12:51:39Z</time>
      </trkpt>
      <trkpt lat="47.83704" lon="-3.20496">
        <ele>19.84</ele>
        <time>2012-05-08T12:51:42Z</time>
      </trkpt>
      <trkpt lat="47.83648" lon="-3.20499">
        <ele>21.29</ele>
        <time>2012-05-08T12:51:53Z</time>
      </trkpt>
      <trkpt lat="47.83628" lon="-3.20506">
        <ele>22.73</ele>
        <time>2012-05-08T12:51:58Z</time>
      </trkpt>
      <trkpt lat="47.83602" lon="-3.20525">
        <ele>22.25</ele>
        <time>2012-05-08T12:52:05Z</time>
      </trkpt>
      <trkpt lat="47.83581" lon="-3.20547">
        <ele>22.25</ele>
        <time>2012-05-08T12:52:10Z</time>
      </trkpt>
      <trkpt lat="47.83542" lon="-3.20598">
        <ele>21.77</ele>
        <time>2012-05-08T12:52:19Z</time>
      </trkpt>
      <trkpt lat="47.83504" lon="-3.20649">
        <ele>26.09</ele>
        <time>2012-05-08T12:52:28Z</time>
      </trkpt>
      <trkpt lat="47.83501" lon="-3.20654">
        <ele>26.57</ele>
        <time>2012-05-08T12:52:29Z</time>
      </trkpt>
      <trkpt lat="47.83491" lon="-3.2067">
        <ele>28.98</ele>
        <time>2012-05-08T12:52:32Z</time>
      </trkpt>
      <trkpt lat="47.83451" lon="-3.20726">
        <ele>34.26</ele>
        <time>2012-05-08T12:52:43Z</time>
      </trkpt>
      <trkpt lat="47.83414" lon="-3.20782">
        <ele>37.15</ele>
        <time>2012-05-08T12:52:53Z</time>
      </trkpt>
      <trkpt lat="47.83395" lon="-3.20807">
        <ele>36.19</ele>
        <time>2012-05-08T12:52:58Z</time>
      </trkpt>
      <trkpt lat="47.83358" lon="-3.20855">
        <ele>38.59</ele>
        <time>2012-05-08T12:53:08Z</time>
      </trkpt>
      <trkpt lat="47.83353" lon="-3.20861">
        <ele>38.59</ele>
        <time>2012-05-08T12:53:09Z</time>
      </trkpt>
      <trkpt lat="47.83331" lon="-3.20882">
        <ele>37.63</ele>
        <time>2012-05-08T12:53:13Z</time>
      </trkpt>
      <trkpt lat="47.83313" lon="-3.20892">
        <ele>34.74</ele>
        <time>2012-05-08T12:53:16Z</time>
      </trkpt>
      <trkpt lat="47.83228" lon="-3.20943">
        <ele>25.13</ele>
        <time>2012-05-08T12:53:30Z</time>
      </trkpt>
      <trkpt lat="47.8316" lon="-3.20986">
        <ele>23.69</ele>
        <time>2012-05-08T12:53:42Z</time>
      </trkpt>
      <trkpt lat="47.83082" lon="-3.21054">
        <ele>25.13</ele>
        <time>2012-05-08T12:53:58Z</time>
      </trkpt>
      <trkpt lat="47.83042" lon="-3.21092">
        <ele>24.17</ele>
        <time>2012-05-08T12:54:06Z</time>
      </trkpt>
      <trkpt lat="47.83006" lon="-3.21135">
        <ele>28.98</ele>
        <time>2012-05-08T12:54:15Z</time>
      </trkpt>
      <trkpt lat="47.82975" lon="-3.21182">
        <ele>31.38</ele>
        <time>2012-05-08T12:54:23Z</time>
      </trkpt>
      <trkpt lat="47.82967" lon="-3.21195">
        <ele>31.38</ele>
        <time>2012-05-08T12:54:25Z</time>
      </trkpt>
      <trkpt lat="47.82955" lon="-3.21223">
        <ele>32.82</ele>
        <time>2012-05-08T12:54:29Z</time>
      </trkpt>
      <trkpt lat="47.82941" lon="-3.21258">
        <ele>29.46</ele>
        <time>2012-05-08T12:54:34Z</time>
      </trkpt>
      <trkpt lat="47.8292" lon="-3.2132">
        <ele>27.53</ele>
        <time>2012-05-08T12:54:42Z</time>
      </trkpt>
      <trkpt lat="47.82916" lon="-3.21345">
        <ele>27.53</ele>
        <time>2012-05-08T12:54:45Z</time>
      </trkpt>
      <trkpt lat="47.82914" lon="-3.21372">
        <ele>28.02</ele>
        <time>2012-05-08T12:54:48Z</time>
      </trkpt>
      <trkpt lat="47.82915" lon="-3.21407">
        <ele>28.02</ele>
        <time>2012-05-08T12:54:52Z</time>
      </trkpt>
      <trkpt lat="47.82939" lon="-3.21492">
        <ele>31.86</ele>
        <time>2012-05-08T12:55:03Z</time>
      </trkpt>
      <trkpt lat="47.82964" lon="-3.21593">
        <ele>36.67</ele>
        <time>2012-05-08T12:55:15Z</time>
      </trkpt>
      <trkpt lat="47.82995" lon="-3.21678">
        <ele>41.95</ele>
        <time>2012-05-08T12:55:26Z</time>
      </trkpt>
      <trkpt lat="47.82998" lon="-3.21686">
        <ele>42.44</ele>
        <time>2012-05-08T12:55:27Z</time>
      </trkpt>
      <trkpt lat="47.83021" lon="-3.21773">
        <ele>50.13</ele>
        <time>2012-05-08T12:55:38Z</time>
      </trkpt>
      <trkpt lat="47.83026" lon="-3.21863">
        <ele>40.51</ele>
        <time>2012-05-08T12:55:49Z</time>
      </trkpt>
      <trkpt lat="47.83029" lon="-3.21909">
        <ele>34.74</ele>
        <time>2012-05-08T12:55:55Z</time>
      </trkpt>
      <trkpt lat="47.83035" lon="-3.21944">
        <ele>29.46</ele>
        <time>2012-05-08T12:56:00Z</time>
      </trkpt>
      <trkpt lat="47.83049" lon="-3.2204">
        <ele>23.69</ele>
        <time>2012-05-08T12:56:11Z</time>
      </trkpt>
      <trkpt lat="47.83053" lon="-3.22058">
        <ele>22.73</ele>
        <time>2012-05-08T12:56:13Z</time>
      </trkpt>
      <trkpt lat="47.83084" lon="-3.22167">
        <ele>19.36</ele>
        <time>2012-05-08T12:56:26Z</time>
      </trkpt>
      <trkpt lat="47.83097" lon="-3.22216">
        <ele>17.44</ele>
        <time>2012-05-08T12:56:32Z</time>
      </trkpt>
      <trkpt lat="47.83108" lon="-3.22252">
        <ele>15.52</ele>
        <time>2012-05-08T12:56:37Z</time>
      </trkpt>
      <trkpt lat="47.83125" lon="-3.22308">
        <ele>14.08</ele>
        <time>2012-05-08T12:56:44Z</time>
      </trkpt>
      <trkpt lat="47.83133" lon="-3.22339">
        <ele>14.56</ele>
        <time>2012-05-08T12:56:48Z</time>
      </trkpt>
      <trkpt lat="47.83139" lon="-3.22416">
        <ele>7.83</ele>
        <time>2012-05-08T12:56:57Z</time>
      </trkpt>
      <trkpt lat="47.83144" lon="-3.22455">
        <ele>5.91</ele>
        <time>2012-05-08T12:57:02Z</time>
      </trkpt>
      <trkpt lat="47.83148" lon="-3.22477">
        <ele>5.91</ele>
        <time>2012-05-08T12:57:05Z</time>
      </trkpt>
      <trkpt lat="47.8315" lon="-3.22507">
        <ele>8.31</ele>
        <time>2012-05-08T12:57:09Z</time>
      </trkpt>
      <trkpt lat="47.83148" lon="-3.22532">
        <ele>11.19</ele>
        <time>2012-05-08T12:57:12Z</time>
      </trkpt>
      <trkpt lat="47.83145" lon="-3.22549">
        <ele>13.6</ele>
        <time>2012-05-08T12:57:14Z</time>
      </trkpt>
      <trkpt lat="47.83136" lon="-3.22572">
        <ele>17.92</ele>
        <time>2012-05-08T12:57:17Z</time>
      </trkpt>
      <trkpt lat="47.83112" lon="-3.22653">
        <ele>27.05</ele>
        <time>2012-05-08T12:57:27Z</time>
      </trkpt>
      <trkpt lat="47.83096" lon="-3.22743">
        <ele>26.09</ele>
        <time>2012-05-08T12:57:38Z</time>
      </trkpt>
      <trkpt lat="47.83094" lon="-3.22761">
        <ele>25.61</ele>
        <time>2012-05-08T12:57:40Z</time>
      </trkpt>
      <trkpt lat="47.83105" lon="-3.22881">
        <ele>18.4</ele>
        <time>2012-05-08T12:57:54Z</time>
      </trkpt>
      <trkpt lat="47.83104" lon="-3.22907">
        <ele>16.96</ele>
        <time>2012-05-08T12:57:57Z</time>
      </trkpt>
      <trkpt lat="47.83106" lon="-3.22933">
        <ele>15.04</ele>
        <time>2012-05-08T12:58:00Z</time>
      </trkpt>
      <trkpt lat="47.83105" lon="-3.23013">
        <ele>14.56</ele>
        <time>2012-05-08T12:58:09Z</time>
      </trkpt>
      <trkpt lat="47.831" lon="-3.23063">
        <ele>14.56</ele>
        <time>2012-05-08T12:58:15Z</time>
      </trkpt>
      <trkpt lat="47.83093" lon="-3.23137">
        <ele>12.63</ele>
        <time>2012-05-08T12:58:24Z</time>
      </trkpt>
      <trkpt lat="47.83092" lon="-3.23153">
        <ele>13.12</ele>
        <time>2012-05-08T12:58:26Z</time>
      </trkpt>
      <trkpt lat="47.83088" lon="-3.23233">
        <ele>11.67</ele>
        <time>2012-05-08T12:58:36Z</time>
      </trkpt>
      <trkpt lat="47.83077" lon="-3.23329">
        <ele>15.04</ele>
        <time>2012-05-08T12:58:48Z</time>
      </trkpt>
      <trkpt lat="47.83064" lon="-3.23444">
        <ele>14.56</ele>
        <time>2012-05-08T12:59:03Z</time>
      </trkpt>
      <trkpt lat="47.83062" lon="-3.23492">
        <ele>14.08</ele>
        <time>2012-05-08T12:59:10Z</time>
      </trkpt>
      <trkpt lat="47.83062" lon="-3.2355">
        <ele>12.15</ele>
        <time>2012-05-08T12:59:21Z</time>
      </trkpt>
      <trkpt lat="47.83063" lon="-3.23619">
        <ele>9.75</ele>
        <time>2012-05-08T12:59:32Z</time>
      </trkpt>
      <trkpt lat="47.83058" lon="-3.237">
        <ele>9.27</ele>
        <time>2012-05-08T12:59:43Z</time>
      </trkpt>
      <trkpt lat="47.83055" lon="-3.23722">
        <ele>8.79</ele>
        <time>2012-05-08T12:59:46Z</time>
      </trkpt>
      <trkpt lat="47.83049" lon="-3.23759">
        <ele>8.31</ele>
        <time>2012-05-08T12:59:51Z</time>
      </trkpt>
      <trkpt lat="47.83016" lon="-3.23859">
        <ele>13.12</ele>
        <time>2012-05-08T13:00:06Z</time>
      </trkpt>
      <trkpt lat="47.83014" lon="-3.23865">
        <ele>14.08</ele>
        <time>2012-05-08T13:00:07Z</time>
      </trkpt>
      <trkpt lat="47.8297" lon="-3.23983">
        <ele>19.36</ele>
        <time>2012-05-08T13:00:25Z</time>
      </trkpt>
      <trkpt lat="47.82929" lon="-3.24103">
        <ele>23.21</ele>
        <time>2012-05-08T13:00:42Z</time>
      </trkpt>
      <trkpt lat="47.8289" lon="-3.24194">
        <ele>27.05</ele>
        <time>2012-05-08T13:00:57Z</time>
      </trkpt>
      <trkpt lat="47.82847" lon="-3.24295">
        <ele>26.09</ele>
        <time>2012-05-08T13:01:13Z</time>
      </trkpt>
      <trkpt lat="47.82801" lon="-3.24387">
        <ele>26.09</ele>
        <time>2012-05-08T13:01:28Z</time>
      </trkpt>
      <trkpt lat="47.82794" lon="-3.24399">
        <ele>25.61</ele>
        <time>2012-05-08T13:01:30Z</time>
      </trkpt>
      <trkpt lat="47.82737" lon="-3.24503">
        <ele>21.77</ele>
        <time>2012-05-08T13:01:46Z</time>
      </trkpt>
      <trkpt lat="47.82675" lon="-3.24602">
        <ele>19.36</ele>
        <time>2012-05-08T13:02:02Z</time>
      </trkpt>
      <trkpt lat="47.82637" lon="-3.24674">
        <ele>17.92</ele>
        <time>2012-05-08T13:02:14Z</time>
      </trkpt>
      <trkpt lat="47.82626" lon="-3.2469">
        <ele>16.96</ele>
        <time>2012-05-08T13:02:17Z</time>
      </trkpt>
      <trkpt lat="47.82601" lon="-3.24742">
        <ele>16.48</ele>
        <time>2012-05-08T13:02:25Z</time>
      </trkpt>
      <trkpt lat="47.82567" lon="-3.24839">
        <ele>13.6</ele>
        <time>2012-05-08T13:02:37Z</time>
      </trkpt>
      <trkpt lat="47.82565" lon="-3.24855">
        <ele>14.56</ele>
        <time>2012-05-08T13:02:39Z</time>
      </trkpt>
      <trkpt lat="47.82561" lon="-3.2487">
        <ele>15.04</ele>
        <time>2012-05-08T13:02:41Z</time>
      </trkpt>
      <trkpt lat="47.8254" lon="-3.24943">
        <ele>15.04</ele>
        <time>2012-05-08T13:02:51Z</time>
      </trkpt>
      <trkpt lat="47.82531" lon="-3.24963">
        <ele>15.04</ele>
        <time>2012-05-08T13:02:54Z</time>
      </trkpt>
      <trkpt lat="47.82524" lon="-3.24985">
        <ele>15.04</ele>
        <time>2012-05-08T13:02:57Z</time>
      </trkpt>
      <trkpt lat="47.82498" lon="-3.25035">
        <ele>14.56</ele>
        <time>2012-05-08T13:03:06Z</time>
      </trkpt>
      <trkpt lat="47.82467" lon="-3.25089">
        <ele>15.04</ele>
        <time>2012-05-08T13:03:15Z</time>
      </trkpt>
      <trkpt lat="47.82428" lon="-3.25148">
        <ele>13.6</ele>
        <time>2012-05-08T13:03:24Z</time>
      </trkpt>
      <trkpt lat="47.8236" lon="-3.25222">
        <ele>12.63</ele>
        <time>2012-05-08T13:03:39Z</time>
      </trkpt>
      <trkpt lat="47.82336" lon="-3.2524">
        <ele>11.67</ele>
        <time>2012-05-08T13:03:44Z</time>
      </trkpt>
      <trkpt lat="47.8231" lon="-3.25256">
        <ele>9.27</ele>
        <time>2012-05-08T13:03:49Z</time>
      </trkpt>
      <trkpt lat="47.82226" lon="-3.25277">
        <ele>8.31</ele>
        <time>2012-05-08T13:04:04Z</time>
      </trkpt>
      <trkpt lat="47.82133" lon="-3.25304">
        <ele>8.31</ele>
        <time>2012-05-08T13:04:21Z</time>
      </trkpt>
      <trkpt lat="47.82063" lon="-3.25348">
        <ele>8.31</ele>
        <time>2012-05-08T13:04:36Z</time>
      </trkpt>
      <trkpt lat="47.82053" lon="-3.25356">
        <ele>8.31</ele>
        <time>2012-05-08T13:04:39Z</time>
      </trkpt>
      <trkpt lat="47.82038" lon="-3.2537">
        <ele>7.35</ele>
        <time>2012-05-08T13:04:43Z</time>
      </trkpt>
      <trkpt lat="47.82012" lon="-3.254">
        <ele>5.91</ele>
        <time>2012-05-08T13:04:50Z</time>
      </trkpt>
      <trkpt lat="47.81996" lon="-3.25424">
        <ele>4.94</ele>
        <time>2012-05-08T13:04:54Z</time>
      </trkpt>
      <trkpt lat="47.81988" lon="-3.25435">
        <ele>4.94</ele>
        <time>2012-05-08T13:04:56Z</time>
      </trkpt>
      <trkpt lat="47.8197" lon="-3.25478">
        <ele>5.42</ele>
        <time>2012-05-08T13:05:02Z</time>
      </trkpt>
      <trkpt lat="47.81963" lon="-3.25564">
        <ele>5.42</ele>
        <time>2012-05-08T13:05:12Z</time>
      </trkpt>
      <trkpt lat="47.81967" lon="-3.25708">
        <ele>5.42</ele>
        <time>2012-05-08T13:05:29Z</time>
      </trkpt>
      <trkpt lat="47.81979" lon="-3.25808">
        <ele>5.42</ele>
        <time>2012-05-08T13:05:41Z</time>
      </trkpt>
      <trkpt lat="47.81992" lon="-3.25836">
        <ele>5.42</ele>
        <time>2012-05-08T13:05:45Z</time>
      </trkpt>
      <trkpt lat="47.8201" lon="-3.25868">
        <ele>5.91</ele>
        <time>2012-05-08T13:05:50Z</time>
      </trkpt>
      <trkpt lat="47.82029" lon="-3.25888">
        <ele>5.42</ele>
        <time>2012-05-08T13:05:54Z</time>
      </trkpt>
      <trkpt lat="47.82045" lon="-3.25897">
        <ele>5.91</ele>
        <time>2012-05-08T13:05:57Z</time>
      </trkpt>
      <trkpt lat="47.82075" lon="-3.25948">
        <ele>5.42</ele>
        <time>2012-05-08T13:06:06Z</time>
      </trkpt>
      <trkpt lat="47.82096" lon="-3.26025">
        <ele>4.46</ele>
        <time>2012-05-08T13:06:16Z</time>
      </trkpt>
      <trkpt lat="47.82105" lon="-3.26057">
        <ele>5.42</ele>
        <time>2012-05-08T13:06:21Z</time>
      </trkpt>
      <trkpt lat="47.82113" lon="-3.26098">
        <ele>4.94</ele>
        <time>2012-05-08T13:06:27Z</time>
      </trkpt>
      <trkpt lat="47.82119" lon="-3.262">
        <ele>4.94</ele>
        <time>2012-05-08T13:06:38Z</time>
      </trkpt>
      <trkpt lat="47.82119" lon="-3.26227">
        <ele>5.42</ele>
        <time>2012-05-08T13:06:41Z</time>
      </trkpt>
      <trkpt lat="47.82118" lon="-3.26253">
        <ele>5.42</ele>
        <time>2012-05-08T13:06:44Z</time>
      </trkpt>
      <trkpt lat="47.82119" lon="-3.26278">
        <ele>5.42</ele>
        <time>2012-05-08T13:06:47Z</time>
      </trkpt>
      <trkpt lat="47.82121" lon="-3.26302">
        <ele>5.42</ele>
        <time>2012-05-08T13:06:50Z</time>
      </trkpt>
      <trkpt lat="47.82118" lon="-3.26326">
        <ele>5.91</ele>
        <time>2012-05-08T13:06:53Z</time>
      </trkpt>
      <trkpt lat="47.82117" lon="-3.26358">
        <ele>5.42</ele>
        <time>2012-05-08T13:06:57Z</time>
      </trkpt>
      <trkpt lat="47.8211" lon="-3.26431">
        <ele>5.91</ele>
        <time>2012-05-08T13:07:05Z</time>
      </trkpt>
      <trkpt lat="47.82108" lon="-3.26439">
        <ele>5.91</ele>
        <time>2012-05-08T13:07:06Z</time>
      </trkpt>
      <trkpt lat="47.82101" lon="-3.26473">
        <ele>6.87</ele>
        <time>2012-05-08T13:07:10Z</time>
      </trkpt>
      <trkpt lat="47.82091" lon="-3.26606">
        <ele>6.87</ele>
        <time>2012-05-08T13:07:25Z</time>
      </trkpt>
      <trkpt lat="47.82089" lon="-3.26634">
        <ele>6.87</ele>
        <time>2012-05-08T13:07:28Z</time>
      </trkpt>
      <trkpt lat="47.82091" lon="-3.26714">
        <ele>6.87</ele>
        <time>2012-05-08T13:07:37Z</time>
      </trkpt>
      <trkpt lat="47.82092" lon="-3.26749">
        <ele>6.87</ele>
        <time>2012-05-08T13:07:41Z</time>
      </trkpt>
      <trkpt lat="47.82091" lon="-3.26809">
        <ele>8.79</ele>
        <time>2012-05-08T13:07:48Z</time>
      </trkpt>
      <trkpt lat="47.82098" lon="-3.26889">
        <ele>7.35</ele>
        <time>2012-05-08T13:07:58Z</time>
      </trkpt>
      <trkpt lat="47.821" lon="-3.26918">
        <ele>7.83</ele>
        <time>2012-05-08T13:08:04Z</time>
      </trkpt>
      <trkpt lat="47.82102" lon="-3.26943">
        <ele>6.87</ele>
        <time>2012-05-08T13:08:08Z</time>
      </trkpt>
      <trkpt lat="47.82103" lon="-3.27011">
        <ele>6.87</ele>
        <time>2012-05-08T13:08:15Z</time>
      </trkpt>
      <trkpt lat="47.82108" lon="-3.2708">
        <ele>6.39</ele>
        <time>2012-05-08T13:08:22Z</time>
      </trkpt>
      <trkpt lat="47.82111" lon="-3.27108">
        <ele>7.35</ele>
        <time>2012-05-08T13:08:25Z</time>
      </trkpt>
      <trkpt lat="47.82121" lon="-3.27174">
        <ele>9.27</ele>
        <time>2012-05-08T13:08:33Z</time>
      </trkpt>
      <trkpt lat="47.82126" lon="-3.272">
        <ele>9.75</ele>
        <time>2012-05-08T13:08:36Z</time>
      </trkpt>
      <trkpt lat="47.82153" lon="-3.27293">
        <ele>12.15</ele>
        <time>2012-05-08T13:08:48Z</time>
      </trkpt>
      <trkpt lat="47.82158" lon="-3.27321">
        <ele>11.67</ele>
        <time>2012-05-08T13:08:52Z</time>
      </trkpt>
      <trkpt lat="47.82161" lon="-3.27342">
        <ele>11.19</ele>
        <time>2012-05-08T13:08:56Z</time>
      </trkpt>
      <trkpt lat="47.8217" lon="-3.27392">
        <ele>10.71</ele>
        <time>2012-05-08T13:09:03Z</time>
      </trkpt>
      <trkpt lat="47.82179" lon="-3.27463">
        <ele>9.27</ele>
        <time>2012-05-08T13:09:12Z</time>
      </trkpt>
      <trkpt lat="47.82176" lon="-3.27516">
        <ele>9.75</ele>
        <time>2012-05-08T13:09:18Z</time>
      </trkpt>
      <trkpt lat="47.82168" lon="-3.27561">
        <ele>10.23</ele>
        <time>2012-05-08T13:09:23Z</time>
      </trkpt>
      <trkpt lat="47.82148" lon="-3.27604">
        <ele>10.23</ele>
        <time>2012-05-08T13:09:29Z</time>
      </trkpt>
      <trkpt lat="47.82105" lon="-3.27651">
        <ele>10.71</ele>
        <time>2012-05-08T13:09:40Z</time>
      </trkpt>
      <trkpt lat="47.82083" lon="-3.27672">
        <ele>9.27</ele>
        <time>2012-05-08T13:09:47Z</time>
      </trkpt>
      <trkpt lat="47.82066" lon="-3.27688">
        <ele>7.35</ele>
        <time>2012-05-08T13:09:52Z</time>
      </trkpt>
      <trkpt lat="47.82022" lon="-3.27744">
        <ele>3.98</ele>
        <time>2012-05-08T13:10:04Z</time>
      </trkpt>
      <trkpt lat="47.82018" lon="-3.27749">
        <ele>3.5</ele>
        <time>2012-05-08T13:10:05Z</time>
      </trkpt>
      <trkpt lat="47.81984" lon="-3.27821">
        <ele>-2.75</ele>
        <time>2012-05-08T13:10:17Z</time>
      </trkpt>
      <trkpt lat="47.81975" lon="-3.27839">
        <ele>-3.71</ele>
        <time>2012-05-08T13:10:20Z</time>
      </trkpt>
      <trkpt lat="47.81958" lon="-3.27876">
        <ele>-8.03</ele>
        <time>2012-05-08T13:10:26Z</time>
      </trkpt>
      <trkpt lat="47.81944" lon="-3.27914">
        <ele>-7.07</ele>
        <time>2012-05-08T13:10:31Z</time>
      </trkpt>
      <trkpt lat="47.81933" lon="-3.2794">
        <ele>-8.03</ele>
        <time>2012-05-08T13:10:35Z</time>
      </trkpt>
      <trkpt lat="47.81892" lon="-3.27992">
        <ele>-9.48</ele>
        <time>2012-05-08T13:10:45Z</time>
      </trkpt>
      <trkpt lat="47.81884" lon="-3.28001">
        <ele>-9.48</ele>
        <time>2012-05-08T13:10:47Z</time>
      </trkpt>
      <trkpt lat="47.81874" lon="-3.28014">
        <ele>-8.51</ele>
        <time>2012-05-08T13:10:50Z</time>
      </trkpt>
      <trkpt lat="47.81846" lon="-3.28056">
        <ele>-5.63</ele>
        <time>2012-05-08T13:10:58Z</time>
      </trkpt>
      <trkpt lat="47.81828" lon="-3.28082">
        <ele>1.1</ele>
        <time>2012-05-08T13:11:05Z</time>
      </trkpt>
      <trkpt lat="47.81802" lon="-3.28118">
        <ele>2.54</ele>
        <time>2012-05-08T13:11:11Z</time>
      </trkpt>
      <trkpt lat="47.81783" lon="-3.28147">
        <ele>3.98</ele>
        <time>2012-05-08T13:11:16Z</time>
      </trkpt>
      <trkpt lat="47.81757" lon="-3.28183">
        <ele>6.39</ele>
        <time>2012-05-08T13:11:22Z</time>
      </trkpt>
      <trkpt lat="47.8172" lon="-3.28217">
        <ele>10.23</ele>
        <time>2012-05-08T13:11:29Z</time>
      </trkpt>
      <trkpt lat="47.81713" lon="-3.28222">
        <ele>10.71</ele>
        <time>2012-05-08T13:11:30Z</time>
      </trkpt>
      <trkpt lat="47.81672" lon="-3.28248">
        <ele>9.27</ele>
        <time>2012-05-08T13:11:37Z</time>
      </trkpt>
      <trkpt lat="47.81628" lon="-3.28283">
        <ele>10.23</ele>
        <time>2012-05-08T13:11:46Z</time>
      </trkpt>
      <trkpt lat="47.81577" lon="-3.28321">
        <ele>3.5</ele>
        <time>2012-05-08T13:11:56Z</time>
      </trkpt>
      <trkpt lat="47.81532" lon="-3.2834">
        <ele>3.5</ele>
        <time>2012-05-08T13:12:04Z</time>
      </trkpt>
      <trkpt lat="47.81454" lon="-3.28341">
        <ele>5.91</ele>
        <time>2012-05-08T13:12:17Z</time>
      </trkpt>
      <trkpt lat="47.81414" lon="-3.28327">
        <ele>6.39</ele>
        <time>2012-05-08T13:12:24Z</time>
      </trkpt>
      <trkpt lat="47.81346" lon="-3.28279">
        <ele>5.91</ele>
        <time>2012-05-08T13:12:36Z</time>
      </trkpt>
      <trkpt lat="47.81302" lon="-3.28244">
        <ele>5.42</ele>
        <time>2012-05-08T13:12:44Z</time>
      </trkpt>
      <trkpt lat="47.81291" lon="-3.28238">
        <ele>4.94</ele>
        <time>2012-05-08T13:12:46Z</time>
      </trkpt>
      <trkpt lat="47.81271" lon="-3.28218">
        <ele>4.46</ele>
        <time>2012-05-08T13:12:51Z</time>
      </trkpt>
      <trkpt lat="47.81227" lon="-3.28187">
        <ele>1.58</ele>
        <time>2012-05-08T13:13:00Z</time>
      </trkpt>
      <trkpt lat="47.81202" lon="-3.28169">
        <ele>1.1</ele>
        <time>2012-05-08T13:13:05Z</time>
      </trkpt>
      <trkpt lat="47.81163" lon="-3.28139">
        <ele>1.1</ele>
        <time>2012-05-08T13:13:13Z</time>
      </trkpt>
      <trkpt lat="47.81136" lon="-3.28102">
        <ele>0.14</ele>
        <time>2012-05-08T13:13:19Z</time>
      </trkpt>
      <trkpt lat="47.81064" lon="-3.28024">
        <ele>0.62</ele>
        <time>2012-05-08T13:13:32Z</time>
      </trkpt>
      <trkpt lat="47.81052" lon="-3.28013">
        <ele>0.62</ele>
        <time>2012-05-08T13:13:34Z</time>
      </trkpt>
      <trkpt lat="47.80997" lon="-3.27967">
        <ele>-0.82</ele>
        <time>2012-05-08T13:13:44Z</time>
      </trkpt>
      <trkpt lat="47.80952" lon="-3.27926">
        <ele>-1.3</ele>
        <time>2012-05-08T13:13:52Z</time>
      </trkpt>
      <trkpt lat="47.80936" lon="-3.27913">
        <ele>-0.82</ele>
        <time>2012-05-08T13:13:55Z</time>
      </trkpt>
      <trkpt lat="47.80908" lon="-3.27907">
        <ele>0.14</ele>
        <time>2012-05-08T13:14:00Z</time>
      </trkpt>
      <trkpt lat="47.80839" lon="-3.2793">
        <ele>2.54</ele>
        <time>2012-05-08T13:14:12Z</time>
      </trkpt>
      <trkpt lat="47.80834" lon="-3.27933">
        <ele>2.54</ele>
        <time>2012-05-08T13:14:13Z</time>
      </trkpt>
      <trkpt lat="47.80815" lon="-3.27951">
        <ele>2.54</ele>
        <time>2012-05-08T13:14:17Z</time>
      </trkpt>
      <trkpt lat="47.80769" lon="-3.27999">
        <ele>0.62</ele>
        <time>2012-05-08T13:14:27Z</time>
      </trkpt>
      <trkpt lat="47.80759" lon="-3.2801">
        <ele>0.14</ele>
        <time>2012-05-08T13:14:29Z</time>
      </trkpt>
      <trkpt lat="47.8074" lon="-3.28026">
        <ele>-0.34</ele>
        <time>2012-05-08T13:14:33Z</time>
      </trkpt>
      <trkpt lat="47.80689" lon="-3.2807">
        <ele>-1.3</ele>
        <time>2012-05-08T13:14:43Z</time>
      </trkpt>
      <trkpt lat="47.8066" lon="-3.28131">
        <ele>-1.79</ele>
        <time>2012-05-08T13:14:52Z</time>
      </trkpt>
      <trkpt lat="47.80636" lon="-3.28176">
        <ele>-0.34</ele>
        <time>2012-05-08T13:14:59Z</time>
      </trkpt>
      <trkpt lat="47.80628" lon="-3.28193">
        <ele>1.1</ele>
        <time>2012-05-08T13:15:02Z</time>
      </trkpt>
      <trkpt lat="47.80572" lon="-3.28233">
        <ele>1.58</ele>
        <time>2012-05-08T13:15:12Z</time>
      </trkpt>
      <trkpt lat="47.80535" lon="-3.28241">
        <ele>3.02</ele>
        <time>2012-05-08T13:15:19Z</time>
      </trkpt>
      <trkpt lat="47.80493" lon="-3.28233">
        <ele>3.98</ele>
        <time>2012-05-08T13:15:28Z</time>
      </trkpt>
      <trkpt lat="47.8047" lon="-3.28217">
        <ele>3.98</ele>
        <time>2012-05-08T13:15:33Z</time>
      </trkpt>
      <trkpt lat="47.80431" lon="-3.28167">
        <ele>3.5</ele>
        <time>2012-05-08T13:15:43Z</time>
      </trkpt>
      <trkpt lat="47.80419" lon="-3.28135">
        <ele>3.5</ele>
        <time>2012-05-08T13:15:49Z</time>
      </trkpt>
      <trkpt lat="47.80416" lon="-3.28092">
        <ele>2.54</ele>
        <time>2012-05-08T13:15:57Z</time>
      </trkpt>
      <trkpt lat="47.80402" lon="-3.28079">
        <ele>2.06</ele>
        <time>2012-05-08T13:16:02Z</time>
      </trkpt>
      <trkpt lat="47.80385" lon="-3.28041">
        <ele>3.02</ele>
        <time>2012-05-08T13:16:15Z</time>
      </trkpt>
      <trkpt lat="47.80376" lon="-3.28023">
        <ele>3.5</ele>
        <time>2012-05-08T13:16:27Z</time>
      </trkpt>
      <trkpt lat="47.80376" lon="-3.28024">
        <ele>3.5</ele>
        <time>2012-05-08T13:16:45Z</time>
      </trkpt>
    </trkseg>
  </trk>
  <trk>
    <name><![CDATA[ACTIVE LOG: 08 MAI 2012 14:20]]></name>
    <trkseg>
      <trkpt lat="47.80373" lon="-3.28026">
        <ele>-4.19</ele>
        <time>2012-05-08T13:20:52Z</time>
      </trkpt>
      <trkpt lat="47.80374" lon="-3.2802">
        <ele>1.58</ele>
        <time>2012-05-08T13:21:08Z</time>
      </trkpt>
      <trkpt lat="47.80374" lon="-3.28022">
        <ele>-1.79</ele>
        <time>2012-05-08T13:21:26Z</time>
      </trkpt>
      <trkpt lat="47.80389" lon="-3.28054">
        <ele>-2.27</ele>
        <time>2012-05-08T13:21:36Z</time>
      </trkpt>
      <trkpt lat="47.80398" lon="-3.28072">
        <ele>-2.27</ele>
        <time>2012-05-08T13:21:42Z</time>
      </trkpt>
      <trkpt lat="47.80404" lon="-3.28084">
        <ele>-0.34</ele>
        <time>2012-05-08T13:22:01Z</time>
      </trkpt>
      <trkpt lat="47.80411" lon="-3.28098">
        <ele>2.54</ele>
        <time>2012-05-08T13:22:05Z</time>
      </trkpt>
      <trkpt lat="47.80417" lon="-3.28134">
        <ele>2.06</ele>
        <time>2012-05-08T13:22:14Z</time>
      </trkpt>
      <trkpt lat="47.8047" lon="-3.28208">
        <ele>0.14</ele>
        <time>2012-05-08T13:22:27Z</time>
      </trkpt>
      <trkpt lat="47.8049" lon="-3.28222">
        <ele>-0.34</ele>
        <time>2012-05-08T13:22:31Z</time>
      </trkpt>
      <trkpt lat="47.80519" lon="-3.28228">
        <ele>-0.34</ele>
        <time>2012-05-08T13:22:36Z</time>
      </trkpt>
      <trkpt lat="47.80542" lon="-3.28223">
        <ele>-0.34</ele>
        <time>2012-05-08T13:22:40Z</time>
      </trkpt>
      <trkpt lat="47.80581" lon="-3.28201">
        <ele>-0.34</ele>
        <time>2012-05-08T13:22:47Z</time>
      </trkpt>
      <trkpt lat="47.8061" lon="-3.2817">
        <ele>-0.34</ele>
        <time>2012-05-08T13:22:53Z</time>
      </trkpt>
      <trkpt lat="47.80639" lon="-3.2814">
        <ele>0.14</ele>
        <time>2012-05-08T13:22:59Z</time>
      </trkpt>
      <trkpt lat="47.80648" lon="-3.28128">
        <ele>0.14</ele>
        <time>2012-05-08T13:23:01Z</time>
      </trkpt>
      <trkpt lat="47.80661" lon="-3.28118">
        <ele>0.62</ele>
        <time>2012-05-08T13:23:04Z</time>
      </trkpt>
      <trkpt lat="47.80674" lon="-3.28107">
        <ele>2.54</ele>
        <time>2012-05-08T13:23:08Z</time>
      </trkpt>
      <trkpt lat="47.80684" lon="-3.28087">
        <ele>3.02</ele>
        <time>2012-05-08T13:23:11Z</time>
      </trkpt>
      <trkpt lat="47.80701" lon="-3.28064">
        <ele>4.94</ele>
        <time>2012-05-08T13:23:17Z</time>
      </trkpt>
      <trkpt lat="47.80757" lon="-3.28021">
        <ele>8.79</ele>
        <time>2012-05-08T13:23:28Z</time>
      </trkpt>
      <trkpt lat="47.80824" lon="-3.27949">
        <ele>13.12</ele>
        <time>2012-05-08T13:23:41Z</time>
      </trkpt>
      <trkpt lat="47.80836" lon="-3.27937">
        <ele>14.08</ele>
        <time>2012-05-08T13:23:43Z</time>
      </trkpt>
      <trkpt lat="47.80884" lon="-3.27903">
        <ele>9.75</ele>
        <time>2012-05-08T13:23:51Z</time>
      </trkpt>
      <trkpt lat="47.80924" lon="-3.27904">
        <ele>9.75</ele>
        <time>2012-05-08T13:23:57Z</time>
      </trkpt>
      <trkpt lat="47.80997" lon="-3.27963">
        <ele>5.91</ele>
        <time>2012-05-08T13:24:10Z</time>
      </trkpt>
      <trkpt lat="47.81027" lon="-3.27989">
        <ele>5.91</ele>
        <time>2012-05-08T13:24:15Z</time>
      </trkpt>
      <trkpt lat="47.81091" lon="-3.28048">
        <ele>3.98</ele>
        <time>2012-05-08T13:24:26Z</time>
      </trkpt>
      <trkpt lat="47.81148" lon="-3.28115">
        <ele>1.1</ele>
        <time>2012-05-08T13:24:36Z</time>
      </trkpt>
      <trkpt lat="47.81212" lon="-3.28169">
        <ele>2.06</ele>
        <time>2012-05-08T13:24:46Z</time>
      </trkpt>
      <trkpt lat="47.81289" lon="-3.28228">
        <ele>2.06</ele>
        <time>2012-05-08T13:24:58Z</time>
      </trkpt>
      <trkpt lat="47.81341" lon="-3.28265">
        <ele>1.58</ele>
        <time>2012-05-08T13:25:06Z</time>
      </trkpt>
      <trkpt lat="47.81431" lon="-3.28328">
        <ele>0.14</ele>
        <time>2012-05-08T13:25:20Z</time>
      </trkpt>
      <trkpt lat="47.81438" lon="-3.28331">
        <ele>0.14</ele>
        <time>2012-05-08T13:25:21Z</time>
      </trkpt>
      <trkpt lat="47.81486" lon="-3.28343">
        <ele>1.1</ele>
        <time>2012-05-08T13:25:28Z</time>
      </trkpt>
      <trkpt lat="47.81522" lon="-3.28341">
        <ele>2.06</ele>
        <time>2012-05-08T13:25:33Z</time>
      </trkpt>
      <trkpt lat="47.81549" lon="-3.28332">
        <ele>2.54</ele>
        <time>2012-05-08T13:25:37Z</time>
      </trkpt>
      <trkpt lat="47.81562" lon="-3.28327">
        <ele>0.14</ele>
        <time>2012-05-08T13:25:39Z</time>
      </trkpt>
      <trkpt lat="47.81629" lon="-3.28281">
        <ele>-1.3</ele>
        <time>2012-05-08T13:25:50Z</time>
      </trkpt>
      <trkpt lat="47.81642" lon="-3.28275">
        <ele>-0.82</ele>
        <time>2012-05-08T13:25:52Z</time>
      </trkpt>
      <trkpt lat="47.81655" lon="-3.28268">
        <ele>-0.34</ele>
        <time>2012-05-08T13:25:54Z</time>
      </trkpt>
      <trkpt lat="47.81671" lon="-3.2825">
        <ele>-0.34</ele>
        <time>2012-05-08T13:25:57Z</time>
      </trkpt>
      <trkpt lat="47.81699" lon="-3.2823">
        <ele>-0.82</ele>
        <time>2012-05-08T13:26:04Z</time>
      </trkpt>
      <trkpt lat="47.81731" lon="-3.28206">
        <ele>0.14</ele>
        <time>2012-05-08T13:26:11Z</time>
      </trkpt>
      <trkpt lat="47.81749" lon="-3.28187">
        <ele>0.14</ele>
        <time>2012-05-08T13:26:15Z</time>
      </trkpt>
      <trkpt lat="47.81798" lon="-3.28125">
        <ele>1.58</ele>
        <time>2012-05-08T13:26:25Z</time>
      </trkpt>
      <trkpt lat="47.81803" lon="-3.28119">
        <ele>2.06</ele>
        <time>2012-05-08T13:26:26Z</time>
      </trkpt>
      <trkpt lat="47.81864" lon="-3.28039">
        <ele>2.54</ele>
        <time>2012-05-08T13:26:38Z</time>
      </trkpt>
      <trkpt lat="47.81879" lon="-3.28017">
        <ele>2.54</ele>
        <time>2012-05-08T13:26:41Z</time>
      </trkpt>
      <trkpt lat="47.81896" lon="-3.27985">
        <ele>2.54</ele>
        <time>2012-05-08T13:26:45Z</time>
      </trkpt>
      <trkpt lat="47.8191" lon="-3.27964">
        <ele>2.06</ele>
        <time>2012-05-08T13:26:48Z</time>
      </trkpt>
      <trkpt lat="47.81943" lon="-3.27897">
        <ele>1.58</ele>
        <time>2012-05-08T13:26:56Z</time>
      </trkpt>
      <trkpt lat="47.81988" lon="-3.27796">
        <ele>2.54</ele>
        <time>2012-05-08T13:27:08Z</time>
      </trkpt>
      <trkpt lat="47.82017" lon="-3.27746">
        <ele>3.02</ele>
        <time>2012-05-08T13:27:14Z</time>
      </trkpt>
      <trkpt lat="47.82097" lon="-3.27658">
        <ele>3.02</ele>
        <time>2012-05-08T13:27:27Z</time>
      </trkpt>
      <trkpt lat="47.82117" lon="-3.27638">
        <ele>1.58</ele>
        <time>2012-05-08T13:27:30Z</time>
      </trkpt>
      <trkpt lat="47.82148" lon="-3.276">
        <ele>0.62</ele>
        <time>2012-05-08T13:27:35Z</time>
      </trkpt>
      <trkpt lat="47.82169" lon="-3.27553">
        <ele>0.14</ele>
        <time>2012-05-08T13:27:40Z</time>
      </trkpt>
      <trkpt lat="47.82179" lon="-3.27488">
        <ele>0.14</ele>
        <time>2012-05-08T13:27:46Z</time>
      </trkpt>
      <trkpt lat="47.82166" lon="-3.27382">
        <ele>3.5</ele>
        <time>2012-05-08T13:27:57Z</time>
      </trkpt>
      <trkpt lat="47.82162" lon="-3.27362">
        <ele>3.5</ele>
        <time>2012-05-08T13:27:59Z</time>
      </trkpt>
      <trkpt lat="47.82155" lon="-3.27331">
        <ele>3.02</ele>
        <time>2012-05-08T13:28:02Z</time>
      </trkpt>
      <trkpt lat="47.82138" lon="-3.27265">
        <ele>2.06</ele>
        <time>2012-05-08T13:28:08Z</time>
      </trkpt>
      <trkpt lat="47.82108" lon="-3.27119">
        <ele>1.58</ele>
        <time>2012-05-08T13:28:21Z</time>
      </trkpt>
      <trkpt lat="47.821" lon="-3.26987">
        <ele>1.1</ele>
        <time>2012-05-08T13:28:33Z</time>
      </trkpt>
      <trkpt lat="47.82098" lon="-3.26915">
        <ele>1.1</ele>
        <time>2012-05-08T13:28:41Z</time>
      </trkpt>
      <trkpt lat="47.82098" lon="-3.26882">
        <ele>1.58</ele>
        <time>2012-05-08T13:28:46Z</time>
      </trkpt>
      <trkpt lat="47.82095" lon="-3.26829">
        <ele>1.58</ele>
        <time>2012-05-08T13:28:53Z</time>
      </trkpt>
      <trkpt lat="47.82094" lon="-3.26689">
        <ele>3.02</ele>
        <time>2012-05-08T13:29:08Z</time>
      </trkpt>
      <trkpt lat="47.82093" lon="-3.2667">
        <ele>2.54</ele>
        <time>2012-05-08T13:29:10Z</time>
      </trkpt>
      <trkpt lat="47.82092" lon="-3.2661">
        <ele>3.02</ele>
        <time>2012-05-08T13:29:16Z</time>
      </trkpt>
      <trkpt lat="47.82107" lon="-3.26461">
        <ele>3.5</ele>
        <time>2012-05-08T13:29:31Z</time>
      </trkpt>
      <trkpt lat="47.82121" lon="-3.26334">
        <ele>2.54</ele>
        <time>2012-05-08T13:29:44Z</time>
      </trkpt>
      <trkpt lat="47.82125" lon="-3.26182">
        <ele>5.91</ele>
        <time>2012-05-08T13:29:59Z</time>
      </trkpt>
      <trkpt lat="47.82108" lon="-3.2606">
        <ele>5.42</ele>
        <time>2012-05-08T13:30:11Z</time>
      </trkpt>
      <trkpt lat="47.82074" lon="-3.25943">
        <ele>5.42</ele>
        <time>2012-05-08T13:30:24Z</time>
      </trkpt>
      <trkpt lat="47.82062" lon="-3.25917">
        <ele>5.42</ele>
        <time>2012-05-08T13:30:27Z</time>
      </trkpt>
      <trkpt lat="47.82042" lon="-3.2589">
        <ele>4.94</ele>
        <time>2012-05-08T13:30:31Z</time>
      </trkpt>
      <trkpt lat="47.82029" lon="-3.25882">
        <ele>4.94</ele>
        <time>2012-05-08T13:30:33Z</time>
      </trkpt>
      <trkpt lat="47.81984" lon="-3.25818">
        <ele>4.46</ele>
        <time>2012-05-08T13:30:42Z</time>
      </trkpt>
      <trkpt lat="47.81974" lon="-3.2579">
        <ele>4.46</ele>
        <time>2012-05-08T13:30:45Z</time>
      </trkpt>
      <trkpt lat="47.81963" lon="-3.25673">
        <ele>3.98</ele>
        <time>2012-05-08T13:30:56Z</time>
      </trkpt>
      <trkpt lat="47.81958" lon="-3.25523">
        <ele>3.5</ele>
        <time>2012-05-08T13:31:10Z</time>
      </trkpt>
      <trkpt lat="47.81963" lon="-3.25487">
        <ele>3.5</ele>
        <time>2012-05-08T13:31:14Z</time>
      </trkpt>
      <trkpt lat="47.81991" lon="-3.25425">
        <ele>3.02</ele>
        <time>2012-05-08T13:31:24Z</time>
      </trkpt>
      <trkpt lat="47.82029" lon="-3.25379">
        <ele>3.02</ele>
        <time>2012-05-08T13:31:33Z</time>
      </trkpt>
      <trkpt lat="47.8211" lon="-3.25322">
        <ele>6.39</ele>
        <time>2012-05-08T13:31:46Z</time>
      </trkpt>
      <trkpt lat="47.82148" lon="-3.25299">
        <ele>6.87</ele>
        <time>2012-05-08T13:31:54Z</time>
      </trkpt>
      <trkpt lat="47.82158" lon="-3.25297">
        <ele>6.87</ele>
        <time>2012-05-08T13:31:57Z</time>
      </trkpt>
      <trkpt lat="47.82171" lon="-3.2529">
        <ele>6.87</ele>
        <time>2012-05-08T13:32:02Z</time>
      </trkpt>
      <trkpt lat="47.82221" lon="-3.25277">
        <ele>6.87</ele>
        <time>2012-05-08T13:32:12Z</time>
      </trkpt>
      <trkpt lat="47.82308" lon="-3.25256">
        <ele>6.87</ele>
        <time>2012-05-08T13:32:26Z</time>
      </trkpt>
      <trkpt lat="47.82327" lon="-3.25246">
        <ele>6.39</ele>
        <time>2012-05-08T13:32:30Z</time>
      </trkpt>
      <trkpt lat="47.82348" lon="-3.25231">
        <ele>5.42</ele>
        <time>2012-05-08T13:32:35Z</time>
      </trkpt>
      <trkpt lat="47.82385" lon="-3.252">
        <ele>5.91</ele>
        <time>2012-05-08T13:32:44Z</time>
      </trkpt>
      <trkpt lat="47.82387" lon="-3.25197">
        <ele>5.91</ele>
        <time>2012-05-08T13:32:45Z</time>
      </trkpt>
      <trkpt lat="47.82433" lon="-3.25144">
        <ele>8.79</ele>
        <time>2012-05-08T13:32:56Z</time>
      </trkpt>
      <trkpt lat="47.82491" lon="-3.25049">
        <ele>10.23</ele>
        <time>2012-05-08T13:33:09Z</time>
      </trkpt>
      <trkpt lat="47.82496" lon="-3.25041">
        <ele>10.23</ele>
        <time>2012-05-08T13:33:10Z</time>
      </trkpt>
      <trkpt lat="47.82545" lon="-3.24925">
        <ele>10.71</ele>
        <time>2012-05-08T13:33:23Z</time>
      </trkpt>
      <trkpt lat="47.82581" lon="-3.2482">
        <ele>10.71</ele>
        <time>2012-05-08T13:33:34Z</time>
      </trkpt>
      <trkpt lat="47.82608" lon="-3.24742">
        <ele>12.15</ele>
        <time>2012-05-08T13:33:42Z</time>
      </trkpt>
      <trkpt lat="47.82654" lon="-3.24657">
        <ele>13.12</ele>
        <time>2012-05-08T13:33:53Z</time>
      </trkpt>
      <trkpt lat="47.82723" lon="-3.2453">
        <ele>13.6</ele>
        <time>2012-05-08T13:34:08Z</time>
      </trkpt>
      <trkpt lat="47.82756" lon="-3.2448">
        <ele>14.08</ele>
        <time>2012-05-08T13:34:14Z</time>
      </trkpt>
      <trkpt lat="47.82815" lon="-3.24357">
        <ele>14.08</ele>
        <time>2012-05-08T13:34:28Z</time>
      </trkpt>
      <trkpt lat="47.82886" lon="-3.24208">
        <ele>13.6</ele>
        <time>2012-05-08T13:34:44Z</time>
      </trkpt>
      <trkpt lat="47.82942" lon="-3.24084">
        <ele>13.6</ele>
        <time>2012-05-08T13:34:57Z</time>
      </trkpt>
      <trkpt lat="47.82993" lon="-3.23938">
        <ele>14.08</ele>
        <time>2012-05-08T13:35:11Z</time>
      </trkpt>
      <trkpt lat="47.83051" lon="-3.23786">
        <ele>15.04</ele>
        <time>2012-05-08T13:35:26Z</time>
      </trkpt>
      <trkpt lat="47.83067" lon="-3.23666">
        <ele>15.04</ele>
        <time>2012-05-08T13:35:36Z</time>
      </trkpt>
      <trkpt lat="47.83067" lon="-3.23464">
        <ele>14.08</ele>
        <time>2012-05-08T13:35:53Z</time>
      </trkpt>
      <trkpt lat="47.83069" lon="-3.23404">
        <ele>13.6</ele>
        <time>2012-05-08T13:35:58Z</time>
      </trkpt>
      <trkpt lat="47.83093" lon="-3.23225">
        <ele>12.63</ele>
        <time>2012-05-08T13:36:13Z</time>
      </trkpt>
      <trkpt lat="47.83105" lon="-3.2303">
        <ele>12.63</ele>
        <time>2012-05-08T13:36:29Z</time>
      </trkpt>
      <trkpt lat="47.83108" lon="-3.22924">
        <ele>13.12</ele>
        <time>2012-05-08T13:36:38Z</time>
      </trkpt>
      <trkpt lat="47.83094" lon="-3.22783">
        <ele>13.12</ele>
        <time>2012-05-08T13:36:50Z</time>
      </trkpt>
      <trkpt lat="47.83093" lon="-3.22759">
        <ele>13.12</ele>
        <time>2012-05-08T13:36:52Z</time>
      </trkpt>
      <trkpt lat="47.83112" lon="-3.22657">
        <ele>13.12</ele>
        <time>2012-05-08T13:37:01Z</time>
      </trkpt>
      <trkpt lat="47.83153" lon="-3.2253">
        <ele>13.12</ele>
        <time>2012-05-08T13:37:13Z</time>
      </trkpt>
      <trkpt lat="47.83154" lon="-3.22414">
        <ele>15.52</ele>
        <time>2012-05-08T13:37:23Z</time>
      </trkpt>
      <trkpt lat="47.83133" lon="-3.22289">
        <ele>16.48</ele>
        <time>2012-05-08T13:37:35Z</time>
      </trkpt>
      <trkpt lat="47.83114" lon="-3.2225">
        <ele>16</ele>
        <time>2012-05-08T13:37:39Z</time>
      </trkpt>
      <trkpt lat="47.83089" lon="-3.22183">
        <ele>16.48</ele>
        <time>2012-05-08T13:37:46Z</time>
      </trkpt>
      <trkpt lat="47.83057" lon="-3.22086">
        <ele>15.04</ele>
        <time>2012-05-08T13:37:56Z</time>
      </trkpt>
      <trkpt lat="47.83036" lon="-3.2197">
        <ele>13.6</ele>
        <time>2012-05-08T13:38:09Z</time>
      </trkpt>
      <trkpt lat="47.83031" lon="-3.21947">
        <ele>13.6</ele>
        <time>2012-05-08T13:38:12Z</time>
      </trkpt>
      <trkpt lat="47.83022" lon="-3.21921">
        <ele>14.08</ele>
        <time>2012-05-08T13:38:16Z</time>
      </trkpt>
      <trkpt lat="47.83003" lon="-3.21831">
        <ele>13.12</ele>
        <time>2012-05-08T13:38:28Z</time>
      </trkpt>
      <trkpt lat="47.82984" lon="-3.21731">
        <ele>12.15</ele>
        <time>2012-05-08T13:38:40Z</time>
      </trkpt>
      <trkpt lat="47.82974" lon="-3.21699">
        <ele>11.67</ele>
        <time>2012-05-08T13:38:44Z</time>
      </trkpt>
      <trkpt lat="47.82939" lon="-3.21573">
        <ele>12.15</ele>
        <time>2012-05-08T13:38:58Z</time>
      </trkpt>
      <trkpt lat="47.82936" lon="-3.21551">
        <ele>12.15</ele>
        <time>2012-05-08T13:39:00Z</time>
      </trkpt>
      <trkpt lat="47.8293" lon="-3.21519">
        <ele>12.15</ele>
        <time>2012-05-08T13:39:03Z</time>
      </trkpt>
      <trkpt lat="47.82907" lon="-3.21417">
        <ele>11.19</ele>
        <time>2012-05-08T13:39:13Z</time>
      </trkpt>
      <trkpt lat="47.82903" lon="-3.21375">
        <ele>11.19</ele>
        <time>2012-05-08T13:39:17Z</time>
      </trkpt>
      <trkpt lat="47.82929" lon="-3.21261">
        <ele>11.67</ele>
        <time>2012-05-08T13:39:29Z</time>
      </trkpt>
      <trkpt lat="47.82963" lon="-3.21185">
        <ele>11.67</ele>
        <time>2012-05-08T13:39:38Z</time>
      </trkpt>
      <trkpt lat="47.82974" lon="-3.21166">
        <ele>12.15</ele>
        <time>2012-05-08T13:39:42Z</time>
      </trkpt>
      <trkpt lat="47.83025" lon="-3.21103">
        <ele>12.63</ele>
        <time>2012-05-08T13:39:55Z</time>
      </trkpt>
      <trkpt lat="47.83102" lon="-3.21035">
        <ele>12.63</ele>
        <time>2012-05-08T13:40:09Z</time>
      </trkpt>
      <trkpt lat="47.83203" lon="-3.20956">
        <ele>13.12</ele>
        <time>2012-05-08T13:40:25Z</time>
      </trkpt>
      <trkpt lat="47.83262" lon="-3.20918">
        <ele>13.6</ele>
        <time>2012-05-08T13:40:34Z</time>
      </trkpt>
      <trkpt lat="47.8331" lon="-3.20887">
        <ele>15.04</ele>
        <time>2012-05-08T13:40:43Z</time>
      </trkpt>
      <trkpt lat="47.83351" lon="-3.20851">
        <ele>16</ele>
        <time>2012-05-08T13:40:52Z</time>
      </trkpt>
      <trkpt lat="47.83405" lon="-3.20788">
        <ele>16.96</ele>
        <time>2012-05-08T13:41:04Z</time>
      </trkpt>
      <trkpt lat="47.83482" lon="-3.20677">
        <ele>16.96</ele>
        <time>2012-05-08T13:41:20Z</time>
      </trkpt>
      <trkpt lat="47.83566" lon="-3.20557">
        <ele>14.56</ele>
        <time>2012-05-08T13:41:37Z</time>
      </trkpt>
      <trkpt lat="47.83592" lon="-3.20525">
        <ele>15.04</ele>
        <time>2012-05-08T13:41:42Z</time>
      </trkpt>
      <trkpt lat="47.83608" lon="-3.2051">
        <ele>15.04</ele>
        <time>2012-05-08T13:41:45Z</time>
      </trkpt>
      <trkpt lat="47.83626" lon="-3.20501">
        <ele>15.04</ele>
        <time>2012-05-08T13:41:48Z</time>
      </trkpt>
      <trkpt lat="47.83701" lon="-3.2049">
        <ele>13.6</ele>
        <time>2012-05-08T13:42:00Z</time>
      </trkpt>
      <trkpt lat="47.8372" lon="-3.20493">
        <ele>13.12</ele>
        <time>2012-05-08T13:42:03Z</time>
      </trkpt>
      <trkpt lat="47.83745" lon="-3.20503">
        <ele>13.12</ele>
        <time>2012-05-08T13:42:07Z</time>
      </trkpt>
      <trkpt lat="47.83843" lon="-3.20531">
        <ele>14.56</ele>
        <time>2012-05-08T13:42:22Z</time>
      </trkpt>
      <trkpt lat="47.83926" lon="-3.20531">
        <ele>16.48</ele>
        <time>2012-05-08T13:42:35Z</time>
      </trkpt>
      <trkpt lat="47.83944" lon="-3.20531">
        <ele>16.96</ele>
        <time>2012-05-08T13:42:38Z</time>
      </trkpt>
      <trkpt lat="47.84018" lon="-3.20524">
        <ele>17.44</ele>
        <time>2012-05-08T13:42:50Z</time>
      </trkpt>
      <trkpt lat="47.84037" lon="-3.20529">
        <ele>17.92</ele>
        <time>2012-05-08T13:42:53Z</time>
      </trkpt>
      <trkpt lat="47.84095" lon="-3.20583">
        <ele>16.48</ele>
        <time>2012-05-08T13:43:04Z</time>
      </trkpt>
      <trkpt lat="47.84133" lon="-3.2067">
        <ele>15.04</ele>
        <time>2012-05-08T13:43:15Z</time>
      </trkpt>
      <trkpt lat="47.84205" lon="-3.20769">
        <ele>13.12</ele>
        <time>2012-05-08T13:43:31Z</time>
      </trkpt>
      <trkpt lat="47.84277" lon="-3.20864">
        <ele>13.12</ele>
        <time>2012-05-08T13:43:46Z</time>
      </trkpt>
      <trkpt lat="47.84367" lon="-3.20941">
        <ele>13.6</ele>
        <time>2012-05-08T13:44:03Z</time>
      </trkpt>
      <trkpt lat="47.84427" lon="-3.21016">
        <ele>12.63</ele>
        <time>2012-05-08T13:44:16Z</time>
      </trkpt>
      <trkpt lat="47.84465" lon="-3.21076">
        <ele>13.12</ele>
        <time>2012-05-08T13:44:27Z</time>
      </trkpt>
      <trkpt lat="47.845" lon="-3.2116">
        <ele>14.56</ele>
        <time>2012-05-08T13:44:39Z</time>
      </trkpt>
      <trkpt lat="47.84507" lon="-3.21181">
        <ele>14.08</ele>
        <time>2012-05-08T13:44:42Z</time>
      </trkpt>
      <trkpt lat="47.84565" lon="-3.21281">
        <ele>11.67</ele>
        <time>2012-05-08T13:44:57Z</time>
      </trkpt>
      <trkpt lat="47.84626" lon="-3.21393">
        <ele>8.31</ele>
        <time>2012-05-08T13:45:14Z</time>
      </trkpt>
      <trkpt lat="47.84644" lon="-3.21429">
        <ele>7.35</ele>
        <time>2012-05-08T13:45:20Z</time>
      </trkpt>
      <trkpt lat="47.84682" lon="-3.21492">
        <ele>8.31</ele>
        <time>2012-05-08T13:45:31Z</time>
      </trkpt>
      <trkpt lat="47.84738" lon="-3.21561">
        <ele>9.27</ele>
        <time>2012-05-08T13:45:44Z</time>
      </trkpt>
      <trkpt lat="47.84774" lon="-3.21573">
        <ele>9.27</ele>
        <time>2012-05-08T13:45:50Z</time>
      </trkpt>
      <trkpt lat="47.84829" lon="-3.21575">
        <ele>9.75</ele>
        <time>2012-05-08T13:45:59Z</time>
      </trkpt>
      <trkpt lat="47.84913" lon="-3.21565">
        <ele>11.67</ele>
        <time>2012-05-08T13:46:13Z</time>
      </trkpt>
      <trkpt lat="47.85" lon="-3.21559">
        <ele>13.6</ele>
        <time>2012-05-08T13:46:27Z</time>
      </trkpt>
      <trkpt lat="47.85086" lon="-3.21562">
        <ele>15.04</ele>
        <time>2012-05-08T13:46:42Z</time>
      </trkpt>
      <trkpt lat="47.8516" lon="-3.21573">
        <ele>13.6</ele>
        <time>2012-05-08T13:46:56Z</time>
      </trkpt>
      <trkpt lat="47.85202" lon="-3.21579">
        <ele>13.6</ele>
        <time>2012-05-08T13:47:03Z</time>
      </trkpt>
      <trkpt lat="47.85226" lon="-3.21574">
        <ele>13.6</ele>
        <time>2012-05-08T13:47:07Z</time>
      </trkpt>
      <trkpt lat="47.8529" lon="-3.21536">
        <ele>10.71</ele>
        <time>2012-05-08T13:47:19Z</time>
      </trkpt>
      <trkpt lat="47.85316" lon="-3.21495">
        <ele>14.08</ele>
        <time>2012-05-08T13:47:26Z</time>
      </trkpt>
      <trkpt lat="47.85317" lon="-3.21469">
        <ele>15.04</ele>
        <time>2012-05-08T13:47:29Z</time>
      </trkpt>
      <trkpt lat="47.85316" lon="-3.21443">
        <ele>15.04</ele>
        <time>2012-05-08T13:47:32Z</time>
      </trkpt>
      <trkpt lat="47.85296" lon="-3.21381">
        <ele>14.08</ele>
        <time>2012-05-08T13:47:40Z</time>
      </trkpt>
      <trkpt lat="47.8529" lon="-3.21365">
        <ele>13.12</ele>
        <time>2012-05-08T13:47:42Z</time>
      </trkpt>
      <trkpt lat="47.85286" lon="-3.21296">
        <ele>11.67</ele>
        <time>2012-05-08T13:47:50Z</time>
      </trkpt>
      <trkpt lat="47.85292" lon="-3.2128">
        <ele>11.67</ele>
        <time>2012-05-08T13:47:52Z</time>
      </trkpt>
      <trkpt lat="47.8533" lon="-3.21208">
        <ele>10.71</ele>
        <time>2012-05-08T13:48:03Z</time>
      </trkpt>
      <trkpt lat="47.85334" lon="-3.21202">
        <ele>10.23</ele>
        <time>2012-05-08T13:48:04Z</time>
      </trkpt>
      <trkpt lat="47.85348" lon="-3.21172">
        <ele>11.19</ele>
        <time>2012-05-08T13:48:08Z</time>
      </trkpt>
      <trkpt lat="47.85391" lon="-3.21135">
        <ele>12.63</ele>
        <time>2012-05-08T13:48:16Z</time>
      </trkpt>
      <trkpt lat="47.85438" lon="-3.21143">
        <ele>13.6</ele>
        <time>2012-05-08T13:48:24Z</time>
      </trkpt>
      <trkpt lat="47.85471" lon="-3.21169">
        <ele>13.12</ele>
        <time>2012-05-08T13:48:33Z</time>
      </trkpt>
      <trkpt lat="47.85501" lon="-3.21198">
        <ele>13.6</ele>
        <time>2012-05-08T13:48:40Z</time>
      </trkpt>
      <trkpt lat="47.85519" lon="-3.2122">
        <ele>14.08</ele>
        <time>2012-05-08T13:48:44Z</time>
      </trkpt>
      <trkpt lat="47.85538" lon="-3.21243">
        <ele>14.08</ele>
        <time>2012-05-08T13:48:48Z</time>
      </trkpt>
      <trkpt lat="47.8557" lon="-3.21253">
        <ele>14.08</ele>
        <time>2012-05-08T13:48:53Z</time>
      </trkpt>
      <trkpt lat="47.85633" lon="-3.21209">
        <ele>15.04</ele>
        <time>2012-05-08T13:49:04Z</time>
      </trkpt>
      <trkpt lat="47.85683" lon="-3.21154">
        <ele>15.52</ele>
        <time>2012-05-08T13:49:14Z</time>
      </trkpt>
      <trkpt lat="47.85749" lon="-3.21086">
        <ele>12.15</ele>
        <time>2012-05-08T13:49:27Z</time>
      </trkpt>
      <trkpt lat="47.85795" lon="-3.21032">
        <ele>10.71</ele>
        <time>2012-05-08T13:49:36Z</time>
      </trkpt>
      <trkpt lat="47.85862" lon="-3.20964">
        <ele>10.71</ele>
        <time>2012-05-08T13:49:48Z</time>
      </trkpt>
      <trkpt lat="47.85917" lon="-3.20916">
        <ele>12.15</ele>
        <time>2012-05-08T13:49:58Z</time>
      </trkpt>
      <trkpt lat="47.86" lon="-3.20844">
        <ele>15.52</ele>
        <time>2012-05-08T13:50:11Z</time>
      </trkpt>
      <trkpt lat="47.86082" lon="-3.20736">
        <ele>17.44</ele>
        <time>2012-05-08T13:50:27Z</time>
      </trkpt>
      <trkpt lat="47.86114" lon="-3.20695">
        <ele>18.4</ele>
        <time>2012-05-08T13:50:34Z</time>
      </trkpt>
      <trkpt lat="47.86163" lon="-3.20617">
        <ele>19.36</ele>
        <time>2012-05-08T13:50:46Z</time>
      </trkpt>
      <trkpt lat="47.86227" lon="-3.20509">
        <ele>17.92</ele>
        <time>2012-05-08T13:51:02Z</time>
      </trkpt>
      <trkpt lat="47.86264" lon="-3.20441">
        <ele>16.48</ele>
        <time>2012-05-08T13:51:12Z</time>
      </trkpt>
      <trkpt lat="47.86277" lon="-3.20415">
        <ele>16</ele>
        <time>2012-05-08T13:51:19Z</time>
      </trkpt>
      <trkpt lat="47.86301" lon="-3.20351">
        <ele>15.04</ele>
        <time>2012-05-08T13:51:31Z</time>
      </trkpt>
      <trkpt lat="47.8634" lon="-3.20237">
        <ele>14.56</ele>
        <time>2012-05-08T13:51:46Z</time>
      </trkpt>
      <trkpt lat="47.86387" lon="-3.20106">
        <ele>15.52</ele>
        <time>2012-05-08T13:52:02Z</time>
      </trkpt>
      <trkpt lat="47.86423" lon="-3.20028">
        <ele>16.96</ele>
        <time>2012-05-08T13:52:14Z</time>
      </trkpt>
      <trkpt lat="47.8645" lon="-3.19973">
        <ele>17.92</ele>
        <time>2012-05-08T13:52:25Z</time>
      </trkpt>
      <trkpt lat="47.86468" lon="-3.19944">
        <ele>18.88</ele>
        <time>2012-05-08T13:52:35Z</time>
      </trkpt>
      <trkpt lat="47.86481" lon="-3.19932">
        <ele>19.84</ele>
        <time>2012-05-08T13:52:42Z</time>
      </trkpt>
      <trkpt lat="47.86527" lon="-3.19891">
        <ele>20.32</ele>
        <time>2012-05-08T13:52:53Z</time>
      </trkpt>
      <trkpt lat="47.86542" lon="-3.19878">
        <ele>20.32</ele>
        <time>2012-05-08T13:52:56Z</time>
      </trkpt>
      <trkpt lat="47.8656" lon="-3.19857">
        <ele>21.29</ele>
        <time>2012-05-08T13:53:00Z</time>
      </trkpt>
      <trkpt lat="47.86624" lon="-3.198">
        <ele>19.36</ele>
        <time>2012-05-08T13:53:13Z</time>
      </trkpt>
      <trkpt lat="47.8666" lon="-3.19774">
        <ele>18.88</ele>
        <time>2012-05-08T13:53:20Z</time>
      </trkpt>
      <trkpt lat="47.86739" lon="-3.19715">
        <ele>17.92</ele>
        <time>2012-05-08T13:53:35Z</time>
      </trkpt>
      <trkpt lat="47.86816" lon="-3.19656">
        <ele>18.88</ele>
        <time>2012-05-08T13:53:49Z</time>
      </trkpt>
      <trkpt lat="47.86907" lon="-3.19606">
        <ele>17.92</ele>
        <time>2012-05-08T13:54:04Z</time>
      </trkpt>
      <trkpt lat="47.86994" lon="-3.19584">
        <ele>16</ele>
        <time>2012-05-08T13:54:17Z</time>
      </trkpt>
      <trkpt lat="47.87069" lon="-3.19577">
        <ele>15.52</ele>
        <time>2012-05-08T13:54:30Z</time>
      </trkpt>
      <trkpt lat="47.87156" lon="-3.19577">
        <ele>15.52</ele>
        <time>2012-05-08T13:54:46Z</time>
      </trkpt>
      <trkpt lat="47.87259" lon="-3.19592">
        <ele>14.56</ele>
        <time>2012-05-08T13:55:02Z</time>
      </trkpt>
      <trkpt lat="47.87334" lon="-3.19635">
        <ele>13.6</ele>
        <time>2012-05-08T13:55:14Z</time>
      </trkpt>
      <trkpt lat="47.87423" lon="-3.19714">
        <ele>12.15</ele>
        <time>2012-05-08T13:55:30Z</time>
      </trkpt>
      <trkpt lat="47.87449" lon="-3.19736">
        <ele>12.15</ele>
        <time>2012-05-08T13:55:35Z</time>
      </trkpt>
      <trkpt lat="47.87544" lon="-3.19834">
        <ele>11.67</ele>
        <time>2012-05-08T13:55:52Z</time>
      </trkpt>
      <trkpt lat="47.87581" lon="-3.19867">
        <ele>12.15</ele>
        <time>2012-05-08T13:55:59Z</time>
      </trkpt>
      <trkpt lat="47.87646" lon="-3.1991">
        <ele>12.15</ele>
        <time>2012-05-08T13:56:11Z</time>
      </trkpt>
      <trkpt lat="47.87699" lon="-3.19964">
        <ele>11.67</ele>
        <time>2012-05-08T13:56:21Z</time>
      </trkpt>
      <trkpt lat="47.87756" lon="-3.20023">
        <ele>11.67</ele>
        <time>2012-05-08T13:56:33Z</time>
      </trkpt>
      <trkpt lat="47.87826" lon="-3.2009">
        <ele>12.15</ele>
        <time>2012-05-08T13:56:47Z</time>
      </trkpt>
      <trkpt lat="47.87903" lon="-3.20171">
        <ele>12.15</ele>
        <time>2012-05-08T13:57:02Z</time>
      </trkpt>
      <trkpt lat="47.87959" lon="-3.20235">
        <ele>12.63</ele>
        <time>2012-05-08T13:57:13Z</time>
      </trkpt>
      <trkpt lat="47.87983" lon="-3.20264">
        <ele>13.6</ele>
        <time>2012-05-08T13:57:18Z</time>
      </trkpt>
      <trkpt lat="47.88" lon="-3.20287">
        <ele>14.08</ele>
        <time>2012-05-08T13:57:22Z</time>
      </trkpt>
      <trkpt lat="47.88031" lon="-3.20307">
        <ele>14.08</ele>
        <time>2012-05-08T13:57:28Z</time>
      </trkpt>
      <trkpt lat="47.88062" lon="-3.20334">
        <ele>14.08</ele>
        <time>2012-05-08T13:57:34Z</time>
      </trkpt>
      <trkpt lat="47.88098" lon="-3.20346">
        <ele>13.6</ele>
        <time>2012-05-08T13:57:40Z</time>
      </trkpt>
      <trkpt lat="47.8816" lon="-3.20316">
        <ele>14.56</ele>
        <time>2012-05-08T13:57:50Z</time>
      </trkpt>
      <trkpt lat="47.88261" lon="-3.20247">
        <ele>15.04</ele>
        <time>2012-05-08T13:58:07Z</time>
      </trkpt>
      <trkpt lat="47.88332" lon="-3.20201">
        <ele>15.52</ele>
        <time>2012-05-08T13:58:19Z</time>
      </trkpt>
      <trkpt lat="47.88344" lon="-3.20194">
        <ele>15.52</ele>
        <time>2012-05-08T13:58:21Z</time>
      </trkpt>
      <trkpt lat="47.88404" lon="-3.20132">
        <ele>16</ele>
        <time>2012-05-08T13:58:32Z</time>
      </trkpt>
      <trkpt lat="47.88456" lon="-3.20035">
        <ele>15.52</ele>
        <time>2012-05-08T13:58:44Z</time>
      </trkpt>
      <trkpt lat="47.88489" lon="-3.1992">
        <ele>14.56</ele>
        <time>2012-05-08T13:58:56Z</time>
      </trkpt>
      <trkpt lat="47.88538" lon="-3.19739">
        <ele>14.08</ele>
        <time>2012-05-08T13:59:15Z</time>
      </trkpt>
      <trkpt lat="47.88559" lon="-3.19645">
        <ele>11.19</ele>
        <time>2012-05-08T13:59:25Z</time>
      </trkpt>
      <trkpt lat="47.88606" lon="-3.19499">
        <ele>11.67</ele>
        <time>2012-05-08T13:59:42Z</time>
      </trkpt>
      <trkpt lat="47.88658" lon="-3.19365">
        <ele>12.63</ele>
        <time>2012-05-08T13:59:57Z</time>
      </trkpt>
      <trkpt lat="47.88709" lon="-3.19191">
        <ele>13.6</ele>
        <time>2012-05-08T14:00:15Z</time>
      </trkpt>
      <trkpt lat="47.88745" lon="-3.19035">
        <ele>15.04</ele>
        <time>2012-05-08T14:00:32Z</time>
      </trkpt>
      <trkpt lat="47.88757" lon="-3.1896">
        <ele>15.52</ele>
        <time>2012-05-08T14:00:40Z</time>
      </trkpt>
      <trkpt lat="47.88747" lon="-3.18845">
        <ele>15.52</ele>
        <time>2012-05-08T14:00:52Z</time>
      </trkpt>
      <trkpt lat="47.88718" lon="-3.18686">
        <ele>16.96</ele>
        <time>2012-05-08T14:01:09Z</time>
      </trkpt>
      <trkpt lat="47.88698" lon="-3.18589">
        <ele>18.4</ele>
        <time>2012-05-08T14:01:20Z</time>
      </trkpt>
      <trkpt lat="47.88674" lon="-3.18471">
        <ele>17.92</ele>
        <time>2012-05-08T14:01:34Z</time>
      </trkpt>
      <trkpt lat="47.88662" lon="-3.1836">
        <ele>15.04</ele>
        <time>2012-05-08T14:01:46Z</time>
      </trkpt>
      <trkpt lat="47.88649" lon="-3.18135">
        <ele>16</ele>
        <time>2012-05-08T14:02:09Z</time>
      </trkpt>
      <trkpt lat="47.88638" lon="-3.18023">
        <ele>17.44</ele>
        <time>2012-05-08T14:02:21Z</time>
      </trkpt>
      <trkpt lat="47.88613" lon="-3.17873">
        <ele>16.48</ele>
        <time>2012-05-08T14:02:38Z</time>
      </trkpt>
      <trkpt lat="47.88613" lon="-3.17765">
        <ele>17.92</ele>
        <time>2012-05-08T14:02:50Z</time>
      </trkpt>
      <trkpt lat="47.88619" lon="-3.17651">
        <ele>21.77</ele>
        <time>2012-05-08T14:03:03Z</time>
      </trkpt>
      <trkpt lat="47.88617" lon="-3.17606">
        <ele>23.69</ele>
        <time>2012-05-08T14:03:08Z</time>
      </trkpt>
      <trkpt lat="47.88624" lon="-3.17559">
        <ele>26.09</ele>
        <time>2012-05-08T14:03:15Z</time>
      </trkpt>
      <trkpt lat="47.88626" lon="-3.17511">
        <ele>25.61</ele>
        <time>2012-05-08T14:03:22Z</time>
      </trkpt>
      <trkpt lat="47.88636" lon="-3.17453">
        <ele>28.02</ele>
        <time>2012-05-08T14:03:29Z</time>
      </trkpt>
      <trkpt lat="47.88639" lon="-3.17435">
        <ele>28.98</ele>
        <time>2012-05-08T14:03:31Z</time>
      </trkpt>
      <trkpt lat="47.88646" lon="-3.17348">
        <ele>25.61</ele>
        <time>2012-05-08T14:03:40Z</time>
      </trkpt>
      <trkpt lat="47.88674" lon="-3.17212">
        <ele>16.96</ele>
        <time>2012-05-08T14:03:55Z</time>
      </trkpt>
      <trkpt lat="47.88704" lon="-3.17085">
        <ele>16.96</ele>
        <time>2012-05-08T14:04:08Z</time>
      </trkpt>
      <trkpt lat="47.88736" lon="-3.16905">
        <ele>12.63</ele>
        <time>2012-05-08T14:04:26Z</time>
      </trkpt>
      <trkpt lat="47.88744" lon="-3.16866">
        <ele>12.15</ele>
        <time>2012-05-08T14:04:30Z</time>
      </trkpt>
      <trkpt lat="47.88761" lon="-3.16766">
        <ele>12.15</ele>
        <time>2012-05-08T14:04:40Z</time>
      </trkpt>
      <trkpt lat="47.88765" lon="-3.16748">
        <ele>12.15</ele>
        <time>2012-05-08T14:04:42Z</time>
      </trkpt>
      <trkpt lat="47.88769" lon="-3.1672">
        <ele>12.15</ele>
        <time>2012-05-08T14:04:45Z</time>
      </trkpt>
      <trkpt lat="47.88783" lon="-3.1664">
        <ele>14.08</ele>
        <time>2012-05-08T14:04:55Z</time>
      </trkpt>
      <trkpt lat="47.88795" lon="-3.16575">
        <ele>15.52</ele>
        <time>2012-05-08T14:05:05Z</time>
      </trkpt>
      <trkpt lat="47.88801" lon="-3.16541">
        <ele>16.48</ele>
        <time>2012-05-08T14:05:10Z</time>
      </trkpt>
      <trkpt lat="47.88816" lon="-3.16455">
        <ele>16.48</ele>
        <time>2012-05-08T14:05:22Z</time>
      </trkpt>
      <trkpt lat="47.88827" lon="-3.16395">
        <ele>16.96</ele>
        <time>2012-05-08T14:05:30Z</time>
      </trkpt>
      <trkpt lat="47.88831" lon="-3.16371">
        <ele>17.44</ele>
        <time>2012-05-08T14:05:33Z</time>
      </trkpt>
      <trkpt lat="47.88836" lon="-3.16348">
        <ele>17.44</ele>
        <time>2012-05-08T14:05:36Z</time>
      </trkpt>
      <trkpt lat="47.88838" lon="-3.16334">
        <ele>16.96</ele>
        <time>2012-05-08T14:05:38Z</time>
      </trkpt>
      <trkpt lat="47.88846" lon="-3.16296">
        <ele>16</ele>
        <time>2012-05-08T14:05:43Z</time>
      </trkpt>
      <trkpt lat="47.88851" lon="-3.16264">
        <ele>15.52</ele>
        <time>2012-05-08T14:05:47Z</time>
      </trkpt>
      <trkpt lat="47.88859" lon="-3.16225">
        <ele>13.6</ele>
        <time>2012-05-08T14:05:52Z</time>
      </trkpt>
      <trkpt lat="47.88865" lon="-3.16202">
        <ele>13.6</ele>
        <time>2012-05-08T14:05:55Z</time>
      </trkpt>
      <trkpt lat="47.88869" lon="-3.16168">
        <ele>14.08</ele>
        <time>2012-05-08T14:05:59Z</time>
      </trkpt>
      <trkpt lat="47.88881" lon="-3.16087">
        <ele>14.56</ele>
        <time>2012-05-08T14:06:09Z</time>
      </trkpt>
      <trkpt lat="47.88884" lon="-3.16053">
        <ele>15.04</ele>
        <time>2012-05-08T14:06:13Z</time>
      </trkpt>
      <trkpt lat="47.88896" lon="-3.15978">
        <ele>15.04</ele>
        <time>2012-05-08T14:06:22Z</time>
      </trkpt>
      <trkpt lat="47.88918" lon="-3.15882">
        <ele>18.4</ele>
        <time>2012-05-08T14:06:34Z</time>
      </trkpt>
      <trkpt lat="47.88933" lon="-3.15787">
        <ele>18.4</ele>
        <time>2012-05-08T14:06:46Z</time>
      </trkpt>
      <trkpt lat="47.88944" lon="-3.15693">
        <ele>17.92</ele>
        <time>2012-05-08T14:06:58Z</time>
      </trkpt>
      <trkpt lat="47.88945" lon="-3.15554">
        <ele>19.84</ele>
        <time>2012-05-08T14:07:12Z</time>
      </trkpt>
      <trkpt lat="47.88933" lon="-3.15441">
        <ele>18.4</ele>
        <time>2012-05-08T14:07:23Z</time>
      </trkpt>
      <trkpt lat="47.8894" lon="-3.15336">
        <ele>17.92</ele>
        <time>2012-05-08T14:07:33Z</time>
      </trkpt>
      <trkpt lat="47.88957" lon="-3.152">
        <ele>18.4</ele>
        <time>2012-05-08T14:07:47Z</time>
      </trkpt>
      <trkpt lat="47.88967" lon="-3.15093">
        <ele>17.92</ele>
        <time>2012-05-08T14:07:58Z</time>
      </trkpt>
      <trkpt lat="47.88975" lon="-3.15016">
        <ele>17.92</ele>
        <time>2012-05-08T14:08:06Z</time>
      </trkpt>
      <trkpt lat="47.88978" lon="-3.14987">
        <ele>17.92</ele>
        <time>2012-05-08T14:08:09Z</time>
      </trkpt>
      <trkpt lat="47.88983" lon="-3.14937">
        <ele>17.44</ele>
        <time>2012-05-08T14:08:14Z</time>
      </trkpt>
      <trkpt lat="47.88989" lon="-3.14883">
        <ele>16</ele>
        <time>2012-05-08T14:08:20Z</time>
      </trkpt>
      <trkpt lat="47.88993" lon="-3.1484">
        <ele>16</ele>
        <time>2012-05-08T14:08:26Z</time>
      </trkpt>
      <trkpt lat="47.88995" lon="-3.14753">
        <ele>16</ele>
        <time>2012-05-08T14:08:36Z</time>
      </trkpt>
      <trkpt lat="47.88995" lon="-3.14733">
        <ele>16</ele>
        <time>2012-05-08T14:08:38Z</time>
      </trkpt>
      <trkpt lat="47.88997" lon="-3.14703">
        <ele>16</ele>
        <time>2012-05-08T14:08:41Z</time>
      </trkpt>
      <trkpt lat="47.88998" lon="-3.14645">
        <ele>15.04</ele>
        <time>2012-05-08T14:08:47Z</time>
      </trkpt>
      <trkpt lat="47.88998" lon="-3.14618">
        <ele>15.04</ele>
        <time>2012-05-08T14:08:50Z</time>
      </trkpt>
      <trkpt lat="47.88985" lon="-3.14533">
        <ele>17.92</ele>
        <time>2012-05-08T14:09:00Z</time>
      </trkpt>
      <trkpt lat="47.88983" lon="-3.14521">
        <ele>18.88</ele>
        <time>2012-05-08T14:09:07Z</time>
      </trkpt>
      <trkpt lat="47.88982" lon="-3.1452">
        <ele>18.88</ele>
        <time>2012-05-08T14:09:09Z</time>
      </trkpt>
      <trkpt lat="47.88979" lon="-3.14508">
        <ele>18.88</ele>
        <time>2012-05-08T14:09:13Z</time>
      </trkpt>
      <trkpt lat="47.88977" lon="-3.14498">
        <ele>18.88</ele>
        <time>2012-05-08T14:09:16Z</time>
      </trkpt>
      <trkpt lat="47.88972" lon="-3.1447">
        <ele>17.92</ele>
        <time>2012-05-08T14:09:22Z</time>
      </trkpt>
      <trkpt lat="47.88963" lon="-3.14408">
        <ele>19.84</ele>
        <time>2012-05-08T14:09:31Z</time>
      </trkpt>
      <trkpt lat="47.8895" lon="-3.1433">
        <ele>18.88</ele>
        <time>2012-05-08T14:09:40Z</time>
      </trkpt>
      <trkpt lat="47.88935" lon="-3.14247">
        <ele>17.92</ele>
        <time>2012-05-08T14:09:49Z</time>
      </trkpt>
      <trkpt lat="47.88927" lon="-3.14174">
        <ele>17.44</ele>
        <time>2012-05-08T14:09:57Z</time>
      </trkpt>
      <trkpt lat="47.88929" lon="-3.1414">
        <ele>18.4</ele>
        <time>2012-05-08T14:10:01Z</time>
      </trkpt>
      <trkpt lat="47.8893" lon="-3.14113">
        <ele>19.84</ele>
        <time>2012-05-08T14:10:04Z</time>
      </trkpt>
      <trkpt lat="47.8893" lon="-3.14084">
        <ele>21.77</ele>
        <time>2012-05-08T14:10:07Z</time>
      </trkpt>
      <trkpt lat="47.88932" lon="-3.14057">
        <ele>22.25</ele>
        <time>2012-05-08T14:10:10Z</time>
      </trkpt>
      <trkpt lat="47.88921" lon="-3.13915">
        <ele>18.88</ele>
        <time>2012-05-08T14:10:26Z</time>
      </trkpt>
      <trkpt lat="47.88905" lon="-3.13793">
        <ele>18.88</ele>
        <time>2012-05-08T14:10:40Z</time>
      </trkpt>
      <trkpt lat="47.88874" lon="-3.13691">
        <ele>18.4</ele>
        <time>2012-05-08T14:10:52Z</time>
      </trkpt>
      <trkpt lat="47.88832" lon="-3.13623">
        <ele>18.4</ele>
        <time>2012-05-08T14:11:01Z</time>
      </trkpt>
      <trkpt lat="47.8879" lon="-3.13568">
        <ele>17.92</ele>
        <time>2012-05-08T14:11:11Z</time>
      </trkpt>
      <trkpt lat="47.88737" lon="-3.135">
        <ele>16.96</ele>
        <time>2012-05-08T14:11:23Z</time>
      </trkpt>
      <trkpt lat="47.88665" lon="-3.13377">
        <ele>17.44</ele>
        <time>2012-05-08T14:11:41Z</time>
      </trkpt>
      <trkpt lat="47.88599" lon="-3.13222">
        <ele>17.44</ele>
        <time>2012-05-08T14:12:01Z</time>
      </trkpt>
      <trkpt lat="47.8858" lon="-3.13173">
        <ele>17.92</ele>
        <time>2012-05-08T14:12:08Z</time>
      </trkpt>
      <trkpt lat="47.88528" lon="-3.13063">
        <ele>18.4</ele>
        <time>2012-05-08T14:12:22Z</time>
      </trkpt>
      <trkpt lat="47.88472" lon="-3.12972">
        <ele>18.4</ele>
        <time>2012-05-08T14:12:36Z</time>
      </trkpt>
      <trkpt lat="47.88416" lon="-3.12914">
        <ele>18.4</ele>
        <time>2012-05-08T14:12:50Z</time>
      </trkpt>
      <trkpt lat="47.8836" lon="-3.12857">
        <ele>17.44</ele>
        <time>2012-05-08T14:13:02Z</time>
      </trkpt>
      <trkpt lat="47.88314" lon="-3.12778">
        <ele>12.15</ele>
        <time>2012-05-08T14:13:14Z</time>
      </trkpt>
      <trkpt lat="47.88279" lon="-3.1265">
        <ele>13.6</ele>
        <time>2012-05-08T14:13:28Z</time>
      </trkpt>
      <trkpt lat="47.88255" lon="-3.12488">
        <ele>14.08</ele>
        <time>2012-05-08T14:13:45Z</time>
      </trkpt>
      <trkpt lat="47.88259" lon="-3.1236">
        <ele>15.04</ele>
        <time>2012-05-08T14:13:59Z</time>
      </trkpt>
      <trkpt lat="47.88262" lon="-3.12322">
        <ele>15.52</ele>
        <time>2012-05-08T14:14:03Z</time>
      </trkpt>
      <trkpt lat="47.88252" lon="-3.12214">
        <ele>15.52</ele>
        <time>2012-05-08T14:14:14Z</time>
      </trkpt>
      <trkpt lat="47.88223" lon="-3.12089">
        <ele>16</ele>
        <time>2012-05-08T14:14:27Z</time>
      </trkpt>
      <trkpt lat="47.88223" lon="-3.1205">
        <ele>16</ele>
        <time>2012-05-08T14:14:31Z</time>
      </trkpt>
      <trkpt lat="47.8824" lon="-3.11928">
        <ele>15.52</ele>
        <time>2012-05-08T14:14:44Z</time>
      </trkpt>
      <trkpt lat="47.88241" lon="-3.1192">
        <ele>15.52</ele>
        <time>2012-05-08T14:14:45Z</time>
      </trkpt>
      <trkpt lat="47.88255" lon="-3.11812">
        <ele>15.52</ele>
        <time>2012-05-08T14:14:57Z</time>
      </trkpt>
      <trkpt lat="47.88266" lon="-3.11659">
        <ele>15.52</ele>
        <time>2012-05-08T14:15:14Z</time>
      </trkpt>
      <trkpt lat="47.88251" lon="-3.11517">
        <ele>16</ele>
        <time>2012-05-08T14:15:30Z</time>
      </trkpt>
      <trkpt lat="47.88232" lon="-3.11336">
        <ele>16</ele>
        <time>2012-05-08T14:15:51Z</time>
      </trkpt>
      <trkpt lat="47.88235" lon="-3.11248">
        <ele>17.44</ele>
        <time>2012-05-08T14:16:03Z</time>
      </trkpt>
      <trkpt lat="47.88249" lon="-3.1116">
        <ele>18.4</ele>
        <time>2012-05-08T14:16:16Z</time>
      </trkpt>
      <trkpt lat="47.88251" lon="-3.11148">
        <ele>17.92</ele>
        <time>2012-05-08T14:16:18Z</time>
      </trkpt>
      <trkpt lat="47.88246" lon="-3.11127">
        <ele>18.4</ele>
        <time>2012-05-08T14:16:23Z</time>
      </trkpt>
      <trkpt lat="47.88243" lon="-3.11125">
        <ele>18.4</ele>
        <time>2012-05-08T14:16:24Z</time>
      </trkpt>
      <trkpt lat="47.8824" lon="-3.11123">
        <ele>18.88</ele>
        <time>2012-05-08T14:16:32Z</time>
      </trkpt>
      <trkpt lat="47.8824" lon="-3.11121">
        <ele>18.88</ele>
        <time>2012-05-08T14:16:43Z</time>
      </trkpt>
    </trkseg>
  </trk>
</gpx>